Time,TemperatureF,DewpointF,PressureIn,WindDirection,WindDirectionDegrees,WindSpeedMPH,WindSpeedGustMPH,Humidity,HourlyPrecipIn,Conditions,Clouds,dailyrainin,SoftwareType,DateUTC
2013-01-12 00:01:00,57.0,47.7,29.92,SSW,210,2.0,3.0,71,0.00,,,0.00,Wunderground v.1.15,2013-01-12 05:01:00,
2013-01-12 00:03:00,57.0,47.7,29.92,SW,215,1.0,4.0,71,0.00,,,0.00,Wunderground v.1.15,2013-01-12 05:03:00,
2013-01-12 00:04:00,57.0,48.1,29.92,SW,224,2.0,4.0,72,0.00,,,0.00,Wunderground v.1.15,2013-01-12 05:04:00,
2013-01-12 00:08:00,56.8,47.9,29.92,SW,224,2.0,4.0,72,0.00,,,0.00,Wunderground v.1.15,2013-01-12 05:08:00,
2013-01-12 00:10:00,56.8,47.9,29.92,SW,224,2.0,2.0,72,0.00,,,0.00,Wunderground v.1.15,2013-01-12 05:10:00,
2013-01-12 00:11:00,56.8,47.9,29.92,SW,230,2.0,6.0,72,0.00,,,0.00,Wunderground v.1.15,2013-01-12 05:11:00,
2013-01-12 00:15:00,56.8,47.9,29.92,SSW,206,2.0,6.0,72,0.00,,,0.00,Wunderground v.1.15,2013-01-12 05:15:00,
2013-01-12 00:17:00,56.8,47.9,29.92,SW,223,2.0,6.0,72,0.00,,,0.00,Wunderground v.1.15,2013-01-12 05:17:00,
2013-01-12 00:21:00,56.8,47.9,29.92,SW,229,3.0,3.0,72,0.00,,,0.00,Wunderground v.1.15,2013-01-12 05:21:00,
2013-01-12 00:22:00,56.8,47.9,29.92,SW,229,3.0,3.0,72,0.00,,,0.00,Wunderground v.1.15,2013-01-12 05:22:00,
2013-01-12 00:26:00,57.0,48.1,29.92,WSW,240,4.0,8.0,72,0.00,,,0.00,Wunderground v.1.15,2013-01-12 05:26:00,
2013-01-12 00:27:00,57.0,48.1,29.92,WSW,240,4.0,8.0,72,0.00,,,0.00,Wunderground v.1.15,2013-01-12 05:27:00,
2013-01-12 00:30:00,56.8,47.9,29.92,WSW,240,4.0,4.0,72,0.00,,,0.00,Wunderground v.1.15,2013-01-12 05:30:00,
2013-01-12 00:31:00,56.8,47.9,29.92,SW,217,3.0,5.0,72,0.00,,,0.00,Wunderground v.1.15,2013-01-12 05:31:00,
2013-01-12 00:33:00,56.8,47.9,29.92,SW,217,4.0,5.0,72,0.00,,,0.00,Wunderground v.1.15,2013-01-12 05:33:00,
2013-01-12 00:34:00,56.8,48.2,29.92,SW,220,3.0,5.0,73,0.00,,,0.00,Wunderground v.1.15,2013-01-12 05:34:00,
2013-01-12 00:35:00,56.8,48.2,29.92,South,188,3.0,5.0,73,0.00,,,0.00,Wunderground v.1.15,2013-01-12 05:35:00,
2013-01-12 00:37:00,56.8,48.2,29.92,SW,219,2.0,6.0,73,0.00,,,0.00,Wunderground v.1.15,2013-01-12 05:37:00,
2013-01-12 00:39:00,56.8,48.2,29.92,SW,222,3.0,6.0,73,0.00,,,0.00,Wunderground v.1.15,2013-01-12 05:39:00,
2013-01-12 00:41:00,57.0,48.4,29.92,SW,222,3.0,3.0,73,0.00,,,0.00,Wunderground v.1.15,2013-01-12 05:41:00,
2013-01-12 00:44:00,56.8,48.2,29.92,SW,229,3.0,3.0,73,0.00,,,0.00,Wunderground v.1.15,2013-01-12 05:44:00,
2013-01-12 00:45:00,56.8,48.2,29.92,SW,229,3.0,3.0,73,0.00,,,0.00,Wunderground v.1.15,2013-01-12 05:45:00,
2013-01-12 00:47:00,56.8,48.2,29.92,SW,216,3.0,3.0,73,0.00,,,0.00,Wunderground v.1.15,2013-01-12 05:47:00,
2013-01-12 00:48:00,56.8,48.2,29.92,SSW,213,3.0,3.0,73,0.00,,,0.00,Wunderground v.1.15,2013-01-12 05:48:00,
2013-01-12 00:51:00,56.8,48.6,29.92,SSW,203,3.0,6.0,74,0.00,,,0.00,Wunderground v.1.15,2013-01-12 05:51:00,
2013-01-12 00:54:00,56.8,48.2,29.92,SW,226,3.0,6.0,73,0.00,,,0.00,Wunderground v.1.15,2013-01-12 05:54:00,
2013-01-12 00:56:00,56.7,48.5,29.92,SW,223,3.0,6.0,74,0.00,,,0.00,Wunderground v.1.15,2013-01-12 05:56:00,
2013-01-12 00:59:00,56.7,48.5,29.92,SSW,193,2.0,6.0,74,0.00,,,0.00,Wunderground v.1.15,2013-01-12 05:59:00,
2013-01-12 01:00:00,56.7,48.5,29.90,WSW,257,2.0,3.0,74,0.00,,,0.00,Wunderground v.1.15,2013-01-12 06:00:00,
2013-01-12 01:02:00,56.7,48.5,29.90,South,175,2.0,5.0,74,0.00,,,0.00,Wunderground v.1.15,2013-01-12 06:02:00,
2013-01-12 01:06:00,56.7,48.9,29.90,SSW,203,2.0,5.0,75,0.00,,,0.00,Wunderground v.1.15,2013-01-12 06:06:00,
2013-01-12 01:07:00,56.7,48.9,29.90,SSW,203,2.0,5.0,75,0.00,,,0.00,Wunderground v.1.15,2013-01-12 06:07:00,
2013-01-12 01:09:00,56.7,48.9,29.90,SSW,213,2.0,10.0,75,0.00,,,0.00,Wunderground v.1.15,2013-01-12 06:09:00,
2013-01-12 01:14:00,57.0,49.5,29.90,SSW,196,4.0,6.0,76,0.00,,,0.00,Wunderground v.1.15,2013-01-12 06:14:00,
2013-01-12 01:15:00,57.1,50.0,29.90,SW,220,4.0,6.0,77,0.00,,,0.00,Wunderground v.1.15,2013-01-12 06:15:00,
2013-01-12 01:16:00,57.1,49.6,29.90,South,189,5.0,10.0,76,0.00,,,0.00,Wunderground v.1.15,2013-01-12 06:16:00,
2013-01-12 01:17:00,57.2,50.1,29.90,SSW,206,5.0,10.0,77,0.00,,,0.00,Wunderground v.1.15,2013-01-12 06:17:00,
2013-01-12 01:20:00,57.4,50.2,29.90,South,178,6.0,6.0,77,0.00,,,0.00,Wunderground v.1.15,2013-01-12 06:20:00,
2013-01-12 01:22:00,57.5,50.3,29.90,SW,226,6.0,6.0,77,0.00,,,0.00,Wunderground v.1.15,2013-01-12 06:22:00,
2013-01-12 01:25:00,57.5,50.3,29.90,SW,217,6.0,6.0,77,0.00,,,0.00,Wunderground v.1.15,2013-01-12 06:25:00,
2013-01-12 01:26:00,57.5,50.3,29.90,SW,219,6.0,6.0,77,0.00,,,0.00,Wunderground v.1.15,2013-01-12 06:26:00,
2013-01-12 01:29:00,57.5,50.3,29.90,SSW,195,5.0,6.0,77,0.00,,,0.00,Wunderground v.1.15,2013-01-12 06:29:00,
2013-01-12 01:30:00,57.7,50.5,29.89,SSW,196,5.0,5.0,77,0.00,,,0.00,Wunderground v.1.15,2013-01-12 06:30:00,
2013-01-12 01:33:00,57.7,50.9,29.89,WSW,241,5.0,11.0,78,0.00,,,0.00,Wunderground v.1.15,2013-01-12 06:33:00,
2013-01-12 01:35:00,57.8,51.0,29.89,SSW,213,5.0,13.0,78,0.00,,,0.00,Wunderground v.1.15,2013-01-12 06:35:00,
2013-01-12 01:38:00,57.8,51.0,29.89,SSW,195,6.0,13.0,78,0.00,,,0.00,Wunderground v.1.15,2013-01-12 06:38:00,
2013-01-12 01:40:00,57.8,51.3,29.89,SW,227,7.0,9.0,79,0.00,,,0.00,Wunderground v.1.15,2013-01-12 06:40:00,
2013-01-12 01:41:00,57.8,51.3,29.89,SSW,206,7.0,11.0,79,0.00,,,0.00,Wunderground v.1.15,2013-01-12 06:41:00,
2013-01-12 01:45:00,57.8,51.3,29.90,SW,233,7.0,11.0,79,0.00,,,0.00,Wunderground v.1.15,2013-01-12 06:45:00,
2013-01-12 01:46:00,57.8,51.3,29.90,SSW,192,7.0,11.0,79,0.00,,,0.00,Wunderground v.1.15,2013-01-12 06:46:00,
2013-01-12 01:49:00,58.0,51.9,29.90,SSW,200,7.0,12.0,80,0.00,,,0.00,Wunderground v.1.15,2013-01-12 06:49:00,
2013-01-12 01:50:00,58.0,51.9,29.90,SW,216,7.0,12.0,80,0.00,,,0.00,Wunderground v.1.15,2013-01-12 06:50:00,
2013-01-12 01:54:00,58.0,51.9,29.90,SW,224,7.0,12.0,80,0.00,,,0.00,Wunderground v.1.15,2013-01-12 06:54:00,
2013-01-12 01:55:00,58.0,51.9,29.90,SW,229,7.0,12.0,80,0.00,,,0.00,Wunderground v.1.15,2013-01-12 06:55:00,
2013-01-12 01:56:00,58.0,51.9,29.90,SW,227,7.0,12.0,80,0.00,,,0.00,Wunderground v.1.15,2013-01-12 06:56:00,
2013-01-12 02:00:00,58.0,51.9,29.91,SW,226,6.0,6.0,80,0.00,,,0.00,Wunderground v.1.15,2013-01-12 07:00:00,
2013-01-12 02:03:00,58.0,52.2,29.91,WSW,248,6.0,7.0,81,0.00,,,0.00,Wunderground v.1.15,2013-01-12 07:03:00,
2013-01-12 02:04:00,58.0,52.2,29.91,SW,224,6.0,7.0,81,0.00,,,0.00,Wunderground v.1.15,2013-01-12 07:04:00,
2013-01-12 02:06:00,58.0,52.2,29.91,WSW,237,6.0,7.0,81,0.00,,,0.00,Wunderground v.1.15,2013-01-12 07:06:00,
2013-01-12 02:07:00,58.0,52.2,29.91,SSW,205,6.0,7.0,81,0.00,,,0.00,Wunderground v.1.15,2013-01-12 07:07:00,
2013-01-12 02:08:00,58.0,52.2,29.91,SW,219,6.0,7.0,81,0.00,,,0.00,Wunderground v.1.15,2013-01-12 07:08:00,
2013-01-12 02:09:00,58.0,52.2,29.91,SSW,202,6.0,12.0,81,0.00,,,0.00,Wunderground v.1.15,2013-01-12 07:09:00,
2013-01-12 02:11:00,58.1,52.3,29.91,SSW,205,6.0,10.0,81,0.00,,,0.00,Wunderground v.1.15,2013-01-12 07:11:00,
2013-01-12 02:13:00,58.1,52.3,29.91,WSW,243,6.0,10.0,81,0.00,,,0.00,Wunderground v.1.15,2013-01-12 07:13:00,
2013-01-12 02:14:00,58.1,52.3,29.91,SW,222,7.0,11.0,81,0.00,,,0.00,Wunderground v.1.15,2013-01-12 07:14:00,
2013-01-12 02:15:00,58.1,52.3,29.92,SSW,203,7.0,11.0,81,0.00,,,0.00,Wunderground v.1.15,2013-01-12 07:15:00,
2013-01-12 02:20:00,58.1,52.6,29.92,SW,236,7.0,7.0,82,0.00,,,0.00,Wunderground v.1.15,2013-01-12 07:20:00,
2013-01-12 02:21:00,58.1,52.3,29.92,SSW,206,7.0,12.0,81,0.00,,,0.00,Wunderground v.1.15,2013-01-12 07:21:00,
2013-01-12 02:22:00,58.1,52.6,29.92,SW,222,6.0,12.0,82,0.00,,,0.00,Wunderground v.1.15,2013-01-12 07:22:00,
2013-01-12 02:23:00,58.3,52.8,29.92,SW,220,7.0,12.0,82,0.00,,,0.00,Wunderground v.1.15,2013-01-12 07:23:00,
2013-01-12 02:26:00,58.3,52.8,29.92,SW,223,6.0,12.0,82,0.00,,,0.00,Wunderground v.1.15,2013-01-12 07:26:00,
2013-01-12 02:28:00,58.3,52.8,29.92,SW,224,6.0,12.0,82,0.00,,,0.00,Wunderground v.1.15,2013-01-12 07:28:00,
2013-01-12 02:29:00,58.3,52.8,29.92,SSW,192,6.0,13.0,82,0.00,,,0.00,Wunderground v.1.15,2013-01-12 07:29:00,
2013-01-12 02:31:00,58.3,52.8,29.92,SW,226,6.0,8.0,82,0.00,,,0.00,Wunderground v.1.15,2013-01-12 07:31:00,
2013-01-12 02:32:00,58.3,52.8,29.92,SSW,213,6.0,12.0,82,0.00,,,0.00,Wunderground v.1.15,2013-01-12 07:32:00,
2013-01-12 02:34:00,58.3,52.8,29.92,SW,224,6.0,12.0,82,0.00,,,0.00,Wunderground v.1.15,2013-01-12 07:34:00,
2013-01-12 02:36:00,58.5,53.0,29.92,SW,233,6.0,12.0,82,0.00,,,0.00,Wunderground v.1.15,2013-01-12 07:36:00,
2013-01-12 02:40:00,58.5,53.0,29.92,SW,217,6.0,6.0,82,0.00,,,0.00,Wunderground v.1.15,2013-01-12 07:40:00,
2013-01-12 02:42:00,58.5,53.0,29.92,SW,223,6.0,6.0,82,0.00,,,0.00,Wunderground v.1.15,2013-01-12 07:42:00,
2013-01-12 02:44:00,58.5,53.0,29.92,SW,229,5.0,8.0,82,0.00,,,0.00,Wunderground v.1.15,2013-01-12 07:44:00,
2013-01-12 02:47:00,58.5,53.0,29.93,SW,217,5.0,8.0,82,0.00,,,0.00,Wunderground v.1.15,2013-01-12 07:47:00,
2013-01-12 02:48:00,58.5,53.0,29.93,SW,222,5.0,8.0,82,0.00,,,0.00,Wunderground v.1.15,2013-01-12 07:48:00,
2013-01-12 02:49:00,58.6,53.1,29.93,SW,229,5.0,8.0,82,0.00,,,0.00,Wunderground v.1.15,2013-01-12 07:49:00,
2013-01-12 02:50:00,58.6,53.1,29.93,WSW,237,5.0,6.0,82,0.00,,,0.00,Wunderground v.1.15,2013-01-12 07:50:00,
2013-01-12 02:53:00,58.6,53.1,29.93,SW,233,5.0,7.0,82,0.00,,,0.00,Wunderground v.1.15,2013-01-12 07:53:00,
2013-01-12 02:55:00,58.6,53.1,29.93,SW,219,5.0,7.0,82,0.00,,,0.00,Wunderground v.1.15,2013-01-12 07:55:00,
2013-01-12 02:57:00,58.6,53.5,29.93,SSW,206,6.0,11.0,83,0.00,,,0.00,Wunderground v.1.15,2013-01-12 07:57:00,
2013-01-12 03:01:00,58.8,53.3,29.93,SW,223,6.0,7.0,82,0.00,,,0.00,Wunderground v.1.15,2013-01-12 08:01:00,
2013-01-12 03:03:00,58.8,53.3,29.93,SW,219,6.0,7.0,82,0.00,,,0.00,Wunderground v.1.15,2013-01-12 08:03:00,
2013-01-12 03:06:00,58.6,53.1,29.93,SSW,212,5.0,10.0,82,0.00,,,0.00,Wunderground v.1.15,2013-01-12 08:06:00,
2013-01-12 03:08:00,58.6,53.5,29.93,SW,227,5.0,10.0,83,0.00,,,0.00,Wunderground v.1.15,2013-01-12 08:08:00,
2013-01-12 03:09:00,58.6,53.5,29.93,SSW,206,4.0,10.0,83,0.00,,,0.00,Wunderground v.1.15,2013-01-12 08:09:00,
2013-01-12 03:11:00,58.6,53.1,29.93,SW,234,4.0,4.0,82,0.00,,,0.00,Wunderground v.1.15,2013-01-12 08:11:00,
2013-01-12 03:12:00,58.6,53.5,29.93,SSW,206,4.0,4.0,83,0.00,,,0.00,Wunderground v.1.15,2013-01-12 08:12:00,
2013-01-12 03:17:00,58.5,53.4,29.93,WSW,250,3.0,4.0,83,0.00,,,0.00,Wunderground v.1.15,2013-01-12 08:17:00,
2013-01-12 03:18:00,58.5,53.4,29.93,WSW,250,4.0,4.0,83,0.00,,,0.00,Wunderground v.1.15,2013-01-12 08:18:00,
2013-01-12 03:19:00,58.5,53.4,29.93,SW,230,3.0,4.0,83,0.00,,,0.00,Wunderground v.1.15,2013-01-12 08:19:00,
2013-01-12 03:22:00,58.5,53.7,29.93,SSW,210,4.0,5.0,84,0.00,,,0.00,Wunderground v.1.15,2013-01-12 08:22:00,
2013-01-12 03:23:00,58.5,53.4,29.93,SSE,157,4.0,5.0,83,0.00,,,0.00,Wunderground v.1.15,2013-01-12 08:23:00,
2013-01-12 03:27:00,58.3,53.2,29.93,SSW,200,3.0,5.0,83,0.00,,,0.00,Wunderground v.1.15,2013-01-12 08:27:00,
2013-01-12 03:28:00,58.3,53.5,29.93,SSW,208,3.0,5.0,84,0.00,,,0.00,Wunderground v.1.15,2013-01-12 08:28:00,
2013-01-12 03:29:00,58.3,53.2,29.93,SW,234,3.0,5.0,83,0.00,,,0.00,Wunderground v.1.15,2013-01-12 08:29:00,
2013-01-12 03:34:00,58.1,53.3,29.93,SSW,213,2.0,8.0,84,0.00,,,0.00,Wunderground v.1.15,2013-01-12 08:34:00,
2013-01-12 03:37:00,58.3,53.5,29.93,SE,138,3.0,8.0,84,0.00,,,0.00,Wunderground v.1.15,2013-01-12 08:37:00,
2013-01-12 03:40:00,58.3,53.5,29.93,SW,220,4.0,4.0,84,0.00,,,0.00,Wunderground v.1.15,2013-01-12 08:40:00,
2013-01-12 03:41:00,58.3,53.5,29.93,SW,222,4.0,4.0,84,0.00,,,0.00,Wunderground v.1.15,2013-01-12 08:41:00,
2013-01-12 03:43:00,58.3,53.5,29.93,SW,233,4.0,8.0,84,0.00,,,0.00,Wunderground v.1.15,2013-01-12 08:43:00,
2013-01-12 03:44:00,58.3,53.5,29.93,SW,232,4.0,8.0,84,0.00,,,0.00,Wunderground v.1.15,2013-01-12 08:44:00,
2013-01-12 03:45:00,58.3,53.5,29.93,SW,224,4.0,8.0,84,0.00,,,0.00,Wunderground v.1.15,2013-01-12 08:45:00,
2013-01-12 03:48:00,58.3,53.5,29.93,SW,236,4.0,8.0,84,0.00,,,0.00,Wunderground v.1.15,2013-01-12 08:48:00,
2013-01-12 03:52:00,58.1,53.3,29.93,WSW,240,3.0,7.0,84,0.00,,,0.00,Wunderground v.1.15,2013-01-12 08:52:00,
2013-01-12 03:53:00,58.1,53.3,29.93,WSW,240,3.0,7.0,84,0.00,,,0.00,Wunderground v.1.15,2013-01-12 08:53:00,
2013-01-12 03:55:00,58.1,53.3,29.93,WSW,240,2.0,7.0,84,0.00,,,0.00,Wunderground v.1.15,2013-01-12 08:55:00,
2013-01-12 03:57:00,58.0,53.2,29.93,SW,215,2.0,10.0,84,0.00,,,0.00,Wunderground v.1.15,2013-01-12 08:57:00,
2013-01-12 03:58:00,58.0,53.2,29.93,SW,230,2.0,10.0,84,0.00,,,0.00,Wunderground v.1.15,2013-01-12 08:58:00,
2013-01-12 04:01:00,58.0,53.2,29.93,SW,236,2.0,2.0,84,0.00,,,0.00,Wunderground v.1.15,2013-01-12 09:01:00,
2013-01-12 04:02:00,58.0,53.2,29.93,SW,236,2.0,2.0,84,0.00,,,0.00,Wunderground v.1.15,2013-01-12 09:02:00,
2013-01-12 04:04:00,57.8,53.0,29.93,SW,234,2.0,3.0,84,0.00,,,0.00,Wunderground v.1.15,2013-01-12 09:04:00,
2013-01-12 04:06:00,57.8,53.0,29.93,SW,234,3.0,3.0,84,0.00,,,0.00,Wunderground v.1.15,2013-01-12 09:06:00,
2013-01-12 04:09:00,57.8,53.3,29.93,South,185,2.0,6.0,85,0.00,,,0.00,Wunderground v.1.15,2013-01-12 09:09:00,
2013-01-12 04:11:00,57.8,53.3,29.93,SW,232,2.0,5.0,85,0.00,,,0.00,Wunderground v.1.15,2013-01-12 09:11:00,
2013-01-12 04:13:00,58.0,53.5,29.93,SW,229,3.0,5.0,85,0.00,,,0.00,Wunderground v.1.15,2013-01-12 09:13:00,
2013-01-12 04:17:00,58.0,53.2,29.93,SW,226,4.0,6.0,84,0.00,,,0.00,Wunderground v.1.15,2013-01-12 09:17:00,
2013-01-12 04:18:00,58.0,53.2,29.93,SW,216,4.0,6.0,84,0.00,,,0.00,Wunderground v.1.15,2013-01-12 09:18:00,
2013-01-12 04:20:00,58.1,53.3,29.93,SW,236,4.0,6.0,84,0.00,,,0.00,Wunderground v.1.15,2013-01-12 09:20:00,
2013-01-12 04:24:00,58.1,53.3,29.93,SW,217,4.0,8.0,84,0.00,,,0.00,Wunderground v.1.15,2013-01-12 09:24:00,
2013-01-12 04:25:00,58.3,53.5,29.93,SSW,210,5.0,8.0,84,0.00,,,0.00,Wunderground v.1.15,2013-01-12 09:25:00,
2013-01-12 04:26:00,58.3,53.5,29.93,SSW,205,5.0,10.0,84,0.00,,,0.00,Wunderground v.1.15,2013-01-12 09:26:00,
2013-01-12 04:27:00,58.3,53.5,29.93,SSW,199,5.0,10.0,84,0.00,,,0.00,Wunderground v.1.15,2013-01-12 09:27:00,
2013-01-12 04:30:00,58.3,53.5,29.93,SW,234,5.0,5.0,84,0.00,,,0.00,Wunderground v.1.15,2013-01-12 09:30:00,
2013-01-12 04:32:00,58.3,53.5,29.93,SW,226,5.0,7.0,84,0.00,,,0.00,Wunderground v.1.15,2013-01-12 09:32:00,
2013-01-12 04:33:00,58.3,53.5,29.93,SW,226,5.0,7.0,84,0.00,,,0.00,Wunderground v.1.15,2013-01-12 09:33:00,
2013-01-12 04:37:00,58.3,53.5,29.93,South,191,4.0,10.0,84,0.00,,,0.00,Wunderground v.1.15,2013-01-12 09:37:00,
2013-01-12 04:38:00,58.3,53.8,29.93,SW,220,5.0,10.0,85,0.00,,,0.00,Wunderground v.1.15,2013-01-12 09:38:00,
2013-01-12 04:40:00,58.3,53.5,29.93,SW,216,5.0,6.0,84,0.00,,,0.00,Wunderground v.1.15,2013-01-12 09:40:00,
2013-01-12 04:42:00,58.3,53.8,29.93,SW,227,4.0,6.0,85,0.00,,,0.00,Wunderground v.1.15,2013-01-12 09:42:00,
2013-01-12 04:45:00,58.3,53.5,29.92,SW,234,5.0,6.0,84,0.00,,,0.00,Wunderground v.1.15,2013-01-12 09:45:00,
2013-01-12 04:46:00,58.1,53.3,29.92,SW,233,4.0,6.0,84,0.00,,,0.00,Wunderground v.1.15,2013-01-12 09:46:00,
2013-01-12 04:50:00,58.1,53.6,29.92,SW,236,4.0,4.0,85,0.00,,,0.00,Wunderground v.1.15,2013-01-12 09:50:00,
2013-01-12 04:51:00,58.0,53.5,29.92,SW,233,4.0,4.0,85,0.00,,,0.00,Wunderground v.1.15,2013-01-12 09:51:00,
2013-01-12 04:55:00,58.0,53.5,29.92,SW,220,3.0,8.0,85,0.00,,,0.00,Wunderground v.1.15,2013-01-12 09:55:00,
2013-01-12 04:56:00,58.0,53.5,29.92,SW,222,3.0,8.0,85,0.00,,,0.00,Wunderground v.1.15,2013-01-12 09:56:00,
2013-01-12 04:58:00,58.0,53.5,29.92,SW,220,3.0,8.0,85,0.00,,,0.00,Wunderground v.1.15,2013-01-12 09:58:00,
2013-01-12 04:59:00,58.0,53.5,29.92,SW,224,4.0,8.0,85,0.00,,,0.00,Wunderground v.1.15,2013-01-12 09:59:00,
2013-01-12 05:02:00,57.8,53.3,29.93,SSW,208,4.0,7.0,85,0.00,,,0.00,Wunderground v.1.15,2013-01-12 10:02:00,
2013-01-12 05:04:00,57.8,53.3,29.93,SW,226,4.0,7.0,85,0.00,,,0.00,Wunderground v.1.15,2013-01-12 10:04:00,
2013-01-12 05:05:00,57.8,53.3,29.93,SW,223,4.0,7.0,85,0.00,,,0.00,Wunderground v.1.15,2013-01-12 10:05:00,
2013-01-12 05:07:00,57.8,53.6,29.93,SW,216,4.0,7.0,86,0.00,,,0.00,Wunderground v.1.15,2013-01-12 10:07:00,
2013-01-12 05:08:00,57.8,53.6,29.93,SSW,206,4.0,7.0,86,0.00,,,0.00,Wunderground v.1.15,2013-01-12 10:08:00,
2013-01-12 05:12:00,57.8,53.6,29.93,SSW,206,4.0,10.0,86,0.00,,,0.00,Wunderground v.1.15,2013-01-12 10:12:00,
2013-01-12 05:14:00,57.8,53.6,29.93,SSW,205,4.0,10.0,86,0.00,,,0.00,Wunderground v.1.15,2013-01-12 10:14:00,
2013-01-12 05:17:00,57.8,53.6,29.93,SW,217,4.0,10.0,86,0.00,,,0.00,Wunderground v.1.15,2013-01-12 10:17:00,
2013-01-12 05:20:00,57.8,53.6,29.93,SW,215,4.0,6.0,86,0.00,,,0.00,Wunderground v.1.15,2013-01-12 10:20:00,
2013-01-12 05:23:00,57.8,54.0,29.93,SW,230,4.0,6.0,87,0.00,,,0.00,Wunderground v.1.15,2013-01-12 10:23:00,
2013-01-12 05:27:00,58.0,54.2,29.93,SSW,205,4.0,7.0,87,0.00,,,0.00,Wunderground v.1.15,2013-01-12 10:27:00,
2013-01-12 05:28:00,58.0,54.2,29.93,SW,227,4.0,7.0,87,0.00,,,0.00,Wunderground v.1.15,2013-01-12 10:28:00,
2013-01-12 05:29:00,58.1,54.2,29.93,SSW,203,4.0,10.0,87,0.00,,,0.00,Wunderground v.1.15,2013-01-12 10:29:00,
2013-01-12 05:30:00,58.1,54.2,29.93,SSE,167,5.0,5.0,87,0.00,,,0.00,Wunderground v.1.15,2013-01-12 10:30:00,
2013-01-12 05:33:00,58.1,54.2,29.93,South,191,5.0,7.0,87,0.00,,,0.00,Wunderground v.1.15,2013-01-12 10:33:00,
2013-01-12 05:35:00,58.3,54.4,29.93,SW,215,6.0,8.0,87,0.00,,,0.00,Wunderground v.1.15,2013-01-12 10:35:00,
2013-01-12 05:37:00,58.5,54.6,29.93,SSW,200,6.0,11.0,87,0.00,,,0.00,Wunderground v.1.15,2013-01-12 10:37:00,
2013-01-12 05:41:00,58.6,54.7,29.93,SW,230,7.0,7.0,87,0.00,,,0.00,Wunderground v.1.15,2013-01-12 10:41:00,
2013-01-12 05:42:00,58.6,54.7,29.93,SW,224,7.0,7.0,87,0.00,,,0.00,Wunderground v.1.15,2013-01-12 10:42:00,
2013-01-12 05:43:00,58.6,54.7,29.93,SSW,195,7.0,9.0,87,0.00,,,0.00,Wunderground v.1.15,2013-01-12 10:43:00,
2013-01-12 05:48:00,58.8,54.9,29.93,SW,227,6.0,18.0,87,0.00,,,0.00,Wunderground v.1.15,2013-01-12 10:48:00,
2013-01-12 05:49:00,58.9,55.0,29.93,West,267,7.0,18.0,87,0.00,,,0.00,Wunderground v.1.15,2013-01-12 10:49:00,
2013-01-12 05:50:00,58.9,55.0,29.93,SSW,195,7.0,10.0,87,0.00,,,0.00,Wunderground v.1.15,2013-01-12 10:50:00,
2013-01-12 05:54:00,59.1,54.9,29.93,SW,224,7.0,14.0,86,0.00,,,0.00,Wunderground v.1.15,2013-01-12 10:54:00,
2013-01-12 05:55:00,59.1,55.2,29.93,SW,233,7.0,14.0,87,0.00,,,0.00,Wunderground v.1.15,2013-01-12 10:55:00,
2013-01-12 05:56:00,59.1,55.2,29.93,SSW,208,7.0,14.0,87,0.00,,,0.00,Wunderground v.1.15,2013-01-12 10:56:00,
2013-01-12 06:00:00,59.2,55.3,29.93,WSW,247,7.0,7.0,87,0.00,,,0.00,Wunderground v.1.15,2013-01-12 11:00:00,
2013-01-12 06:02:00,59.2,55.0,29.93,SW,215,7.0,10.0,86,0.00,,,0.00,Wunderground v.1.15,2013-01-12 11:02:00,
2013-01-12 06:05:00,59.4,55.2,29.93,SW,215,8.0,12.0,86,0.00,,,0.00,Wunderground v.1.15,2013-01-12 11:05:00,
2013-01-12 06:06:00,59.4,55.2,29.93,SSW,206,8.0,12.0,86,0.00,,,0.00,Wunderground v.1.15,2013-01-12 11:06:00,
2013-01-12 06:09:00,59.4,55.2,29.93,SSW,206,9.0,12.0,86,0.00,,,0.00,Wunderground v.1.15,2013-01-12 11:09:00,
2013-01-12 06:10:00,59.4,55.2,29.93,WSW,251,9.0,9.0,86,0.00,,,0.00,Wunderground v.1.15,2013-01-12 11:10:00,
2013-01-12 06:12:00,59.4,55.2,29.93,WSW,241,8.0,9.0,86,0.00,,,0.00,Wunderground v.1.15,2013-01-12 11:12:00,
2013-01-12 06:13:00,59.4,55.2,29.93,SSW,205,8.0,13.0,86,0.00,,,0.00,Wunderground v.1.15,2013-01-12 11:13:00,
2013-01-12 06:17:00,59.4,55.2,29.94,South,189,8.0,13.0,86,0.00,,,0.00,Wunderground v.1.15,2013-01-12 11:17:00,
2013-01-12 06:18:00,59.4,55.2,29.94,SSW,206,8.0,13.0,86,0.00,,,0.00,Wunderground v.1.15,2013-01-12 11:18:00,
2013-01-12 06:22:00,59.4,54.9,29.94,SSW,208,8.0,10.0,85,0.00,,,0.00,Wunderground v.1.15,2013-01-12 11:22:00,
2013-01-12 06:23:00,59.4,55.2,29.94,SSW,206,8.0,10.0,86,0.00,,,0.00,Wunderground v.1.15,2013-01-12 11:23:00,
2013-01-12 06:26:00,59.2,55.0,29.94,SW,236,7.0,12.0,86,0.00,,,0.00,Wunderground v.1.15,2013-01-12 11:26:00,
2013-01-12 06:27:00,59.2,55.0,29.94,SSW,212,7.0,12.0,86,0.00,,,0.00,Wunderground v.1.15,2013-01-12 11:27:00,
2013-01-12 06:30:00,59.2,54.7,29.95,SW,223,7.0,7.0,85,0.00,,,0.00,Wunderground v.1.15,2013-01-12 11:30:00,
2013-01-12 06:34:00,59.1,54.9,29.95,WSW,237,6.0,7.0,86,0.00,,,0.00,Wunderground v.1.15,2013-01-12 11:34:00,
2013-01-12 06:36:00,59.1,54.6,29.95,SW,232,6.0,7.0,85,0.00,,,0.00,Wunderground v.1.15,2013-01-12 11:36:00,
2013-01-12 06:38:00,59.1,54.9,29.95,SW,229,5.0,17.0,86,0.00,,,0.00,Wunderground v.1.15,2013-01-12 11:38:00,
2013-01-12 06:39:00,59.2,54.7,29.95,SSW,199,5.0,17.0,85,0.00,,,0.00,Wunderground v.1.15,2013-01-12 11:39:00,
2013-01-12 06:41:00,59.1,54.6,29.95,WSW,243,6.0,8.0,85,0.00,,,0.00,Wunderground v.1.15,2013-01-12 11:41:00,
2013-01-12 06:43:00,59.1,54.6,29.95,SW,226,6.0,8.0,85,0.00,,,0.00,Wunderground v.1.15,2013-01-12 11:43:00,
2013-01-12 06:44:00,59.1,54.6,29.95,West,265,6.0,8.0,85,0.00,,,0.00,Wunderground v.1.15,2013-01-12 11:44:00,
2013-01-12 06:48:00,59.1,54.6,29.95,SW,219,6.0,8.0,85,0.00,,,0.00,Wunderground v.1.15,2013-01-12 11:48:00,
2013-01-12 06:49:00,59.1,54.6,29.95,SW,232,6.0,8.0,85,0.00,,,0.00,Wunderground v.1.15,2013-01-12 11:49:00,
2013-01-12 06:50:00,58.9,54.4,29.95,SSW,206,6.0,10.0,85,0.00,,,0.00,Wunderground v.1.15,2013-01-12 11:50:00,
2013-01-12 06:55:00,58.9,54.4,29.95,SW,224,6.0,10.0,85,0.00,,,0.00,Wunderground v.1.15,2013-01-12 11:55:00,
2013-01-12 06:56:00,58.9,54.4,29.95,SSW,202,6.0,10.0,85,0.00,,,0.00,Wunderground v.1.15,2013-01-12 11:56:00,
2013-01-12 06:57:00,58.9,54.4,29.95,SSW,208,6.0,10.0,85,0.00,,,0.00,Wunderground v.1.15,2013-01-12 11:57:00,
2013-01-12 07:02:00,58.8,54.6,29.95,SW,226,4.0,7.0,86,0.00,,,0.00,Wunderground v.1.15,2013-01-12 12:02:00,
2013-01-12 07:03:00,58.8,54.6,29.95,SW,226,4.0,7.0,86,0.00,,,0.00,Wunderground v.1.15,2013-01-12 12:03:00,
2013-01-12 07:06:00,58.8,54.6,29.95,SSW,202,4.0,7.0,86,0.00,,,0.00,Wunderground v.1.15,2013-01-12 12:06:00,
2013-01-12 07:07:00,58.8,54.6,29.95,SSW,208,4.0,7.0,86,0.00,,,0.00,Wunderground v.1.15,2013-01-12 12:07:00,
2013-01-12 07:08:00,58.8,54.6,29.95,SSW,199,4.0,10.0,86,0.00,,,0.00,Wunderground v.1.15,2013-01-12 12:08:00,
2013-01-12 07:11:00,58.8,54.6,29.95,SW,234,5.0,5.0,86,0.00,,,0.00,Wunderground v.1.15,2013-01-12 12:11:00,
2013-01-12 07:12:00,58.8,54.6,29.95,SW,229,4.0,5.0,86,0.00,,,0.00,Wunderground v.1.15,2013-01-12 12:12:00,
2013-01-12 07:13:00,58.8,54.6,29.95,SSW,210,4.0,5.0,86,0.00,,,0.00,Wunderground v.1.15,2013-01-12 12:13:00,
2013-01-12 07:15:00,58.6,54.4,29.95,WSW,253,5.0,5.0,86,0.00,,,0.00,Wunderground v.1.15,2013-01-12 12:15:00,
2013-01-12 07:17:00,58.6,54.4,29.95,SW,222,4.0,8.0,86,0.00,,,0.00,Wunderground v.1.15,2013-01-12 12:17:00,
2013-01-12 07:19:00,58.6,54.4,29.95,SSW,213,5.0,10.0,86,0.00,,,0.00,Wunderground v.1.15,2013-01-12 12:19:00,
2013-01-12 07:20:00,58.6,54.4,29.95,SSW,212,5.0,15.0,86,0.00,,,0.00,Wunderground v.1.15,2013-01-12 12:20:00,
2013-01-12 07:21:00,58.8,54.9,29.95,SW,222,6.0,15.0,87,0.00,,,0.00,Wunderground v.1.15,2013-01-12 12:21:00,
2013-01-12 07:25:00,58.8,54.6,29.95,South,189,7.0,15.0,86,0.00,,,0.00,Wunderground v.1.15,2013-01-12 12:25:00,
2013-01-12 07:26:00,58.8,54.6,29.95,SSW,206,7.0,15.0,86,0.00,,,0.00,Wunderground v.1.15,2013-01-12 12:26:00,
2013-01-12 07:27:00,58.8,54.6,29.95,SW,216,7.0,15.0,86,0.00,,,0.00,Wunderground v.1.15,2013-01-12 12:27:00,
2013-01-12 07:28:00,58.8,54.6,29.95,SW,236,7.0,15.0,86,0.00,,,0.00,Wunderground v.1.15,2013-01-12 12:28:00,
2013-01-12 07:31:00,58.6,54.4,29.95,SW,236,5.0,6.0,86,0.00,,,0.00,Wunderground v.1.15,2013-01-12 12:31:00,
2013-01-12 07:32:00,58.6,54.4,29.95,SSW,213,4.0,6.0,86,0.00,,,0.00,Wunderground v.1.15,2013-01-12 12:32:00,
2013-01-12 07:33:00,58.6,54.4,29.95,SW,215,4.0,6.0,86,0.00,,,0.00,Wunderground v.1.15,2013-01-12 12:33:00,
2013-01-12 07:35:00,58.6,54.7,29.95,SW,226,4.0,6.0,87,0.00,,,0.00,Wunderground v.1.15,2013-01-12 12:35:00,
2013-01-12 07:38:00,58.6,54.7,29.95,WSW,239,3.0,6.0,87,0.00,,,0.00,Wunderground v.1.15,2013-01-12 12:38:00,
2013-01-12 07:39:00,58.6,54.7,29.95,WSW,244,4.0,6.0,87,0.00,,,0.00,Wunderground v.1.15,2013-01-12 12:39:00,
2013-01-12 07:41:00,58.6,54.7,29.95,SW,234,4.0,7.0,87,0.00,,,0.00,Wunderground v.1.15,2013-01-12 12:41:00,
2013-01-12 07:42:00,58.6,54.7,29.95,SSW,210,4.0,7.0,87,0.00,,,0.00,Wunderground v.1.15,2013-01-12 12:42:00,
2013-01-12 07:43:00,58.6,54.7,29.95,SSW,199,4.0,7.0,87,0.00,,,0.00,Wunderground v.1.15,2013-01-12 12:43:00,
2013-01-12 07:46:00,58.6,54.7,29.96,SW,215,5.0,7.0,87,0.00,,,0.00,Wunderground v.1.15,2013-01-12 12:46:00,
2013-01-12 07:48:00,58.6,54.7,29.96,SSW,206,5.0,7.0,87,0.00,,,0.00,Wunderground v.1.15,2013-01-12 12:48:00,
2013-01-12 07:51:00,58.6,54.7,29.96,SW,219,5.0,5.0,87,0.00,,,0.00,Wunderground v.1.15,2013-01-12 12:51:00,
2013-01-12 07:52:00,58.6,54.7,29.96,SW,220,4.0,5.0,87,0.00,,,0.00,Wunderground v.1.15,2013-01-12 12:52:00,
2013-01-12 07:53:00,58.6,54.7,29.96,WSW,239,4.0,5.0,87,0.00,,,0.00,Wunderground v.1.15,2013-01-12 12:53:00,
2013-01-12 07:54:00,58.6,54.7,29.96,SSW,199,4.0,5.0,87,0.00,,,0.00,Wunderground v.1.15,2013-01-12 12:54:00,
2013-01-12 07:57:00,58.6,54.7,29.96,SW,224,4.0,5.0,87,0.00,,,0.00,Wunderground v.1.15,2013-01-12 12:57:00,
2013-01-12 07:59:00,58.6,54.7,29.96,SW,230,3.0,5.0,87,0.00,,,0.00,Wunderground v.1.15,2013-01-12 12:59:00,
2013-01-12 08:00:00,58.6,54.7,29.97,SW,215,4.0,4.0,87,0.00,,,0.00,Wunderground v.1.15,2013-01-12 13:00:00,
2013-01-12 08:04:00,58.6,54.7,29.97,WSW,247,4.0,5.0,87,0.00,,,0.00,Wunderground v.1.15,2013-01-12 13:04:00,
2013-01-12 08:06:00,58.6,54.7,29.97,SW,215,3.0,6.0,87,0.00,,,0.00,Wunderground v.1.15,2013-01-12 13:06:00,
2013-01-12 08:08:00,58.6,54.7,29.97,WSW,240,3.0,6.0,87,0.00,,,0.00,Wunderground v.1.15,2013-01-12 13:08:00,
2013-01-12 08:10:00,58.5,54.6,29.97,WSW,240,3.0,3.0,87,0.00,,,0.00,Wunderground v.1.15,2013-01-12 13:10:00,
2013-01-12 08:11:00,58.5,54.6,29.97,WSW,240,2.0,3.0,87,0.00,,,0.00,Wunderground v.1.15,2013-01-12 13:11:00,
2013-01-12 08:12:00,58.5,54.6,29.97,WSW,240,2.0,3.0,87,0.00,,,0.00,Wunderground v.1.15,2013-01-12 13:12:00,
2013-01-12 08:14:00,58.5,54.6,29.97,WSW,240,1.0,3.0,87,0.00,,,0.00,Wunderground v.1.15,2013-01-12 13:14:00,
2013-01-12 08:15:00,58.5,54.6,29.97,WSW,237,1.0,3.0,87,0.00,,,0.00,Wunderground v.1.15,2013-01-12 13:15:00,
2013-01-12 08:17:00,58.5,55.0,29.97,SW,227,1.0,4.0,88,0.00,,,0.00,Wunderground v.1.15,2013-01-12 13:17:00,
2013-01-12 08:21:00,58.5,54.6,29.97,SW,226,1.0,1.0,87,0.00,,,0.00,Wunderground v.1.15,2013-01-12 13:21:00,
2013-01-12 08:22:00,58.5,55.0,29.97,SW,226,1.0,1.0,88,0.00,,,0.00,Wunderground v.1.15,2013-01-12 13:22:00,
2013-01-12 08:23:00,58.5,55.0,29.97,SW,226,1.0,1.0,88,0.00,,,0.00,Wunderground v.1.15,2013-01-12 13:23:00,
2013-01-12 08:25:00,58.5,55.0,29.97,SW,233,1.0,5.0,88,0.00,,,0.00,Wunderground v.1.15,2013-01-12 13:25:00,
2013-01-12 08:28:00,58.6,55.1,29.97,SW,226,2.0,5.0,88,0.00,,,0.00,Wunderground v.1.15,2013-01-12 13:28:00,
2013-01-12 08:32:00,58.5,55.0,29.98,SW,227,2.0,5.0,88,0.00,,,0.00,Wunderground v.1.15,2013-01-12 13:32:00,
2013-01-12 08:33:00,58.5,55.0,29.98,SW,229,2.0,5.0,88,0.00,,,0.00,Wunderground v.1.15,2013-01-12 13:33:00,
2013-01-12 08:34:00,58.5,55.0,29.98,SW,229,2.0,5.0,88,0.00,,,0.00,Wunderground v.1.15,2013-01-12 13:34:00,
2013-01-12 08:35:00,58.5,55.0,29.98,SSW,210,2.0,5.0,88,0.00,,,0.00,Wunderground v.1.15,2013-01-12 13:35:00,
2013-01-12 08:39:00,58.5,55.0,29.98,SW,223,1.0,6.0,88,0.00,,,0.00,Wunderground v.1.15,2013-01-12 13:39:00,
2013-01-12 08:41:00,58.6,55.1,29.98,SW,220,1.0,5.0,88,0.00,,,0.00,Wunderground v.1.15,2013-01-12 13:41:00,
2013-01-12 08:42:00,58.6,55.1,29.98,SW,224,1.0,5.0,88,0.00,,,0.00,Wunderground v.1.15,2013-01-12 13:42:00,
2013-01-12 08:43:00,58.6,55.1,29.98,SW,226,1.0,5.0,88,0.00,,,0.00,Wunderground v.1.15,2013-01-12 13:43:00,
2013-01-12 08:48:00,58.6,55.1,29.98,SW,223,2.0,5.0,88,0.00,,,0.00,Wunderground v.1.15,2013-01-12 13:48:00,
2013-01-12 08:49:00,58.6,55.1,29.98,SW,222,2.0,5.0,88,0.00,,,0.00,Wunderground v.1.15,2013-01-12 13:49:00,
2013-01-12 08:51:00,58.6,55.1,29.98,SSW,209,2.0,4.0,88,0.00,,,0.00,Wunderground v.1.15,2013-01-12 13:51:00,
2013-01-12 08:53:00,58.6,55.1,29.98,SSW,213,2.0,4.0,88,0.00,,,0.00,Wunderground v.1.15,2013-01-12 13:53:00,
2013-01-12 08:54:00,58.6,55.1,29.98,SSW,213,2.0,4.0,88,0.00,,,0.00,Wunderground v.1.15,2013-01-12 13:54:00,
2013-01-12 08:58:00,58.6,55.1,29.98,SW,215,1.0,4.0,88,0.00,,,0.00,Wunderground v.1.15,2013-01-12 13:58:00,
2013-01-12 08:59:00,58.6,55.1,29.98,SW,222,1.0,6.0,88,0.00,,,0.00,Wunderground v.1.15,2013-01-12 13:59:00,
2013-01-12 09:01:00,58.6,55.1,29.99,SW,222,2.0,3.0,88,0.00,,,0.00,Wunderground v.1.15,2013-01-12 14:01:00,
2013-01-12 09:04:00,58.6,55.1,29.99,SSW,208,2.0,3.0,88,0.00,,,0.00,Wunderground v.1.15,2013-01-12 14:04:00,
2013-01-12 09:05:00,58.6,55.1,29.99,SSW,193,2.0,5.0,88,0.00,,,0.00,Wunderground v.1.15,2013-01-12 14:05:00,
2013-01-12 09:07:00,58.6,55.1,29.99,SSW,209,2.0,6.0,88,0.00,,,0.00,Wunderground v.1.15,2013-01-12 14:07:00,
2013-01-12 09:11:00,58.8,55.6,29.99,SW,223,3.0,5.0,89,0.00,,,0.00,Wunderground v.1.15,2013-01-12 14:11:00,
2013-01-12 09:15:00,58.9,55.7,29.99,SW,216,4.0,5.0,89,0.00,,,0.00,Wunderground v.1.15,2013-01-12 14:15:00,
2013-01-12 09:17:00,58.9,55.4,29.99,SW,227,4.0,7.0,88,0.00,,,0.00,Wunderground v.1.15,2013-01-12 14:17:00,
2013-01-12 09:18:00,59.1,55.5,29.99,SW,217,5.0,7.0,88,0.00,,,0.00,Wunderground v.1.15,2013-01-12 14:18:00,
2013-01-12 09:19:00,59.1,55.5,29.99,SW,232,5.0,7.0,88,0.00,,,0.00,Wunderground v.1.15,2013-01-12 14:19:00,
2013-01-12 09:23:00,59.1,55.5,29.99,WSW,240,5.0,6.0,88,0.00,,,0.00,Wunderground v.1.15,2013-01-12 14:23:00,
2013-01-12 09:24:00,59.1,55.5,29.99,WSW,240,5.0,6.0,88,0.00,,,0.00,Wunderground v.1.15,2013-01-12 14:24:00,
2013-01-12 09:26:00,59.1,55.5,29.99,SW,233,4.0,6.0,88,0.00,,,0.00,Wunderground v.1.15,2013-01-12 14:26:00,
2013-01-12 09:27:00,58.9,55.4,29.99,WSW,237,3.0,6.0,88,0.00,,,0.00,Wunderground v.1.15,2013-01-12 14:27:00,
2013-01-12 09:30:00,58.9,55.4,29.99,SW,236,2.0,2.0,88,0.00,,,0.00,Wunderground v.1.15,2013-01-12 14:30:00,
2013-01-12 09:33:00,58.9,55.4,29.99,SW,236,2.0,3.0,88,0.00,,,0.00,Wunderground v.1.15,2013-01-12 14:33:00,
2013-01-12 09:37:00,58.9,55.4,29.99,WSW,250,2.0,6.0,88,0.00,,,0.00,Wunderground v.1.15,2013-01-12 14:37:00,
2013-01-12 09:38:00,58.9,55.4,29.99,WSW,250,1.0,6.0,88,0.00,,,0.00,Wunderground v.1.15,2013-01-12 14:38:00,
2013-01-12 09:39:00,58.9,55.4,29.99,WSW,250,1.0,6.0,88,0.00,,,0.00,Wunderground v.1.15,2013-01-12 14:39:00,
2013-01-12 09:42:00,58.9,55.4,29.99,WSW,250,1.0,1.0,88,0.00,,,0.00,Wunderground v.1.15,2013-01-12 14:42:00,
2013-01-12 09:45:00,58.9,55.4,29.99,West,267,1.0,2.0,88,0.00,,,0.00,Wunderground v.1.15,2013-01-12 14:45:00,
2013-01-12 09:46:00,59.1,55.5,29.99,West,265,0.0,2.0,88,0.00,,,0.00,Wunderground v.1.15,2013-01-12 14:46:00,
2013-01-12 09:48:00,59.1,55.5,29.99,West,261,0.0,3.0,88,0.00,,,0.00,Wunderground v.1.15,2013-01-12 14:48:00,
2013-01-12 09:49:00,59.1,55.5,29.99,SW,232,0.0,3.0,88,0.00,,,0.00,Wunderground v.1.15,2013-01-12 14:49:00,
2013-01-12 09:54:00,59.2,55.6,29.99,WSW,239,2.0,3.0,88,0.00,,,0.00,Wunderground v.1.15,2013-01-12 14:54:00,
2013-01-12 09:55:00,59.2,55.6,29.99,WSW,239,1.0,3.0,88,0.00,,,0.00,Wunderground v.1.15,2013-01-12 14:55:00,
2013-01-12 09:57:00,59.2,55.6,29.99,WSW,240,2.0,3.0,88,0.00,,,0.00,Wunderground v.1.15,2013-01-12 14:57:00,
2013-01-12 10:00:00,59.4,55.8,29.99,SW,215,3.0,7.0,88,0.00,,,0.00,Wunderground v.1.15,2013-01-12 15:00:00,
2013-01-12 10:01:00,59.4,55.8,29.99,SW,215,3.0,7.0,88,0.00,,,0.00,Wunderground v.1.15,2013-01-12 15:01:00,
2013-01-12 10:02:00,59.5,55.9,29.99,SW,223,3.0,7.0,88,0.00,,,0.00,Wunderground v.1.15,2013-01-12 15:02:00,
2013-01-12 10:03:00,59.5,55.9,29.99,SW,216,4.0,7.0,88,0.00,,,0.00,Wunderground v.1.15,2013-01-12 15:03:00,
2013-01-12 10:06:00,59.5,55.9,29.99,SW,227,4.0,7.0,88,0.00,,,0.00,Wunderground v.1.15,2013-01-12 15:06:00,
2013-01-12 10:07:00,59.5,55.9,29.99,SW,232,4.0,7.0,88,0.00,,,0.00,Wunderground v.1.15,2013-01-12 15:07:00,
2013-01-12 10:08:00,59.7,56.1,29.99,SW,232,4.0,7.0,88,0.00,,,0.00,Wunderground v.1.15,2013-01-12 15:08:00,
2013-01-12 10:09:00,59.7,56.1,29.99,SW,232,4.0,7.0,88,0.00,,,0.00,Wunderground v.1.15,2013-01-12 15:09:00,
2013-01-12 10:11:00,59.7,56.1,29.99,SW,232,3.0,5.0,88,0.00,,,0.00,Wunderground v.1.15,2013-01-12 15:11:00,
2013-01-12 10:16:00,59.8,55.9,29.98,SW,224,3.0,5.0,87,0.00,,,0.00,Wunderground v.1.15,2013-01-12 15:16:00,
2013-01-12 10:17:00,59.8,55.9,29.98,SW,224,3.0,5.0,87,0.00,,,0.00,Wunderground v.1.15,2013-01-12 15:17:00,
2013-01-12 10:20:00,59.8,55.9,29.98,SW,226,3.0,3.0,87,0.00,,,0.00,Wunderground v.1.15,2013-01-12 15:20:00,
2013-01-12 10:22:00,60.0,56.1,29.98,SW,226,3.0,3.0,87,0.00,,,0.00,Wunderground v.1.15,2013-01-12 15:22:00,
2013-01-12 10:24:00,60.1,56.2,29.98,SW,226,2.0,3.0,87,0.00,,,0.00,Wunderground v.1.15,2013-01-12 15:24:00,
2013-01-12 10:26:00,60.1,56.2,29.98,SW,226,1.0,3.0,87,0.00,,,0.00,Wunderground v.1.15,2013-01-12 15:26:00,
2013-01-12 10:28:00,60.3,56.4,29.98,SW,226,1.0,3.0,87,0.00,,,0.00,Wunderground v.1.15,2013-01-12 15:28:00,
2013-01-12 10:29:00,60.3,56.4,29.98,SW,226,1.0,3.0,87,0.00,,,0.00,Wunderground v.1.15,2013-01-12 15:29:00,
2013-01-12 10:33:00,60.4,56.2,29.99,SSW,199,1.0,6.0,86,0.00,,,0.00,Wunderground v.1.15,2013-01-12 15:33:00,
2013-01-12 10:34:00,60.4,56.2,29.99,SSW,213,2.0,6.0,86,0.00,,,0.00,Wunderground v.1.15,2013-01-12 15:34:00,
2013-01-12 10:35:00,60.4,56.2,29.99,SW,229,2.0,6.0,86,0.00,,,0.00,Wunderground v.1.15,2013-01-12 15:35:00,
2013-01-12 10:36:00,60.6,56.4,29.99,SW,223,3.0,6.0,86,0.00,,,0.00,Wunderground v.1.15,2013-01-12 15:36:00,
2013-01-12 10:39:00,60.6,56.4,29.99,SW,223,3.0,6.0,86,0.00,,,0.00,Wunderground v.1.15,2013-01-12 15:39:00,
2013-01-12 10:40:00,60.6,56.4,29.99,SW,222,4.0,4.0,86,0.00,,,0.00,Wunderground v.1.15,2013-01-12 15:40:00,
2013-01-12 10:41:00,60.6,56.4,29.99,SW,226,4.0,4.0,86,0.00,,,0.00,Wunderground v.1.15,2013-01-12 15:41:00,
2013-01-12 10:44:00,60.7,56.5,29.99,SSW,212,4.0,8.0,86,0.00,,,0.00,Wunderground v.1.15,2013-01-12 15:44:00,
2013-01-12 10:45:00,60.7,56.5,29.99,SSW,193,4.0,8.0,86,0.00,,,0.00,Wunderground v.1.15,2013-01-12 15:45:00,
2013-01-12 10:47:00,60.7,56.2,29.99,SW,234,4.0,8.0,85,0.00,,,0.00,Wunderground v.1.15,2013-01-12 15:47:00,
2013-01-12 10:49:00,60.7,56.2,29.99,SSW,213,5.0,8.0,85,0.00,,,0.00,Wunderground v.1.15,2013-01-12 15:49:00,
2013-01-12 10:53:00,60.9,56.4,29.99,SW,224,5.0,5.0,85,0.00,,,0.00,Wunderground v.1.15,2013-01-12 15:53:00,
2013-01-12 10:55:00,61.0,56.1,29.99,SW,233,5.0,5.0,84,0.00,,,0.00,Wunderground v.1.15,2013-01-12 15:55:00,
2013-01-12 10:58:00,61.2,56.7,29.99,SW,232,4.0,5.0,85,0.00,,,0.00,Wunderground v.1.15,2013-01-12 15:58:00,
2013-01-12 11:00:00,61.4,56.5,29.99,WSW,254,4.0,4.0,84,0.00,,,0.00,Wunderground v.1.15,2013-01-12 16:00:00,
2013-01-12 11:04:00,61.4,56.5,29.99,SW,232,4.0,9.0,84,0.00,,,0.00,Wunderground v.1.15,2013-01-12 16:04:00,
2013-01-12 11:06:00,61.5,56.6,29.99,SSW,199,4.0,10.0,84,0.00,,,0.00,Wunderground v.1.15,2013-01-12 16:06:00,
2013-01-12 11:07:00,61.5,56.6,29.99,West,265,4.0,10.0,84,0.00,,,0.00,Wunderground v.1.15,2013-01-12 16:07:00,
2013-01-12 11:08:00,61.5,56.6,29.99,West,260,5.0,10.0,84,0.00,,,0.00,Wunderground v.1.15,2013-01-12 16:08:00,
2013-01-12 11:12:00,61.5,56.6,29.99,SW,234,5.0,5.0,84,0.00,,,0.00,Wunderground v.1.15,2013-01-12 16:12:00,
2013-01-12 11:14:00,61.5,56.3,29.99,SW,224,5.0,6.0,83,0.00,,,0.00,Wunderground v.1.15,2013-01-12 16:14:00,
2013-01-12 11:15:00,61.5,56.3,29.99,SSW,213,5.0,9.0,83,0.00,,,0.00,Wunderground v.1.15,2013-01-12 16:15:00,
2013-01-12 11:18:00,61.5,56.3,29.99,SW,230,6.0,9.0,83,0.00,,,0.00,Wunderground v.1.15,2013-01-12 16:18:00,
2013-01-12 11:19:00,61.5,56.3,29.99,SW,233,6.0,9.0,83,0.00,,,0.00,Wunderground v.1.15,2013-01-12 16:19:00,
2013-01-12 11:20:00,61.5,56.3,29.99,SW,229,6.0,6.0,83,0.00,,,0.00,Wunderground v.1.15,2013-01-12 16:20:00,
2013-01-12 11:24:00,61.7,56.1,29.99,SW,224,6.0,7.0,82,0.00,,,0.00,Wunderground v.1.15,2013-01-12 16:24:00,
2013-01-12 11:25:00,61.7,56.5,29.99,SW,224,5.0,7.0,83,0.00,,,0.00,Wunderground v.1.15,2013-01-12 16:25:00,
2013-01-12 11:26:00,61.8,56.2,29.99,SW,229,4.0,7.0,82,0.00,,,0.00,Wunderground v.1.15,2013-01-12 16:26:00,
2013-01-12 11:31:00,62.0,56.4,29.98,SSW,202,3.0,7.0,82,0.00,,,0.00,Wunderground v.1.15,2013-01-12 16:31:00,
2013-01-12 11:36:00,62.1,56.2,29.98,WSW,240,4.0,7.0,81,0.00,,,0.00,Wunderground v.1.15,2013-01-12 16:36:00,
2013-01-12 11:37:00,62.3,56.4,29.98,SSW,208,4.0,7.0,81,0.00,,,0.00,Wunderground v.1.15,2013-01-12 16:37:00,
2013-01-12 11:38:00,62.3,56.4,29.98,SSW,208,4.0,7.0,81,0.00,,,0.00,Wunderground v.1.15,2013-01-12 16:38:00,
2013-01-12 11:40:00,62.3,56.4,29.98,SSW,213,4.0,4.0,81,0.00,,,0.00,Wunderground v.1.15,2013-01-12 16:40:00,
2013-01-12 11:43:00,62.3,56.4,29.98,WSW,241,3.0,4.0,81,0.00,,,0.00,Wunderground v.1.15,2013-01-12 16:43:00,
2013-01-12 11:46:00,62.5,56.6,29.98,SW,229,3.0,6.0,81,0.00,,,0.00,Wunderground v.1.15,2013-01-12 16:46:00,
2013-01-12 11:48:00,62.5,56.6,29.98,SW,229,3.0,6.0,81,0.00,,,0.00,Wunderground v.1.15,2013-01-12 16:48:00,
2013-01-12 11:49:00,62.5,56.6,29.98,SW,229,2.0,6.0,81,0.00,,,0.00,Wunderground v.1.15,2013-01-12 16:49:00,
2013-01-12 11:51:00,62.6,56.7,29.98,SSW,199,2.0,8.0,81,0.00,,,0.00,Wunderground v.1.15,2013-01-12 16:51:00,
2013-01-12 11:52:00,62.6,56.7,29.98,WSW,246,3.0,8.0,81,0.00,,,0.00,Wunderground v.1.15,2013-01-12 16:52:00,
2013-01-12 11:54:00,62.8,56.5,29.98,SSW,205,4.0,8.0,80,0.00,,,0.00,Wunderground v.1.15,2013-01-12 16:54:00,
2013-01-12 11:57:00,63.1,56.8,29.98,SW,227,3.0,8.0,80,0.00,,,0.00,Wunderground v.1.15,2013-01-12 16:57:00,
2013-01-12 11:58:00,63.1,56.8,29.98,SW,230,4.0,8.0,80,0.00,,,0.00,Wunderground v.1.15,2013-01-12 16:58:00,
2013-01-12 12:00:00,63.1,56.5,29.97,SW,230,4.0,5.0,79,0.00,,,0.00,Wunderground v.1.15,2013-01-12 17:00:00,
2013-01-12 12:02:00,63.2,56.6,29.97,SW,226,5.0,7.0,79,0.00,,,0.00,Wunderground v.1.15,2013-01-12 17:02:00,
2013-01-12 12:03:00,63.2,56.2,29.97,South,184,5.0,7.0,78,0.00,,,0.00,Wunderground v.1.15,2013-01-12 17:03:00,
2013-01-12 12:09:00,63.6,57.0,29.97,SW,217,5.0,7.0,79,0.00,,,0.00,Wunderground v.1.15,2013-01-12 17:09:00,
2013-01-12 12:10:00,63.7,57.1,29.97,SW,216,5.0,5.0,79,0.00,,,0.00,Wunderground v.1.15,2013-01-12 17:10:00,
2013-01-12 12:12:00,63.9,56.9,29.97,South,176,4.0,5.0,78,0.00,,,0.00,Wunderground v.1.15,2013-01-12 17:12:00,
2013-01-12 12:15:00,63.7,56.4,29.96,South,189,3.0,5.0,77,0.00,,,0.00,Wunderground v.1.15,2013-01-12 17:15:00,
2013-01-12 12:16:00,63.9,56.9,29.96,SW,216,2.0,5.0,78,0.00,,,0.00,Wunderground v.1.15,2013-01-12 17:16:00,
2013-01-12 12:17:00,63.9,56.9,29.96,SSW,213,2.0,5.0,78,0.00,,,0.00,Wunderground v.1.15,2013-01-12 17:17:00,
2013-01-12 12:22:00,63.9,56.5,29.96,SSW,208,2.0,5.0,77,0.00,,,0.00,Wunderground v.1.15,2013-01-12 17:22:00,
2013-01-12 12:23:00,63.9,56.5,29.96,SSW,199,2.0,10.0,77,0.00,,,0.00,Wunderground v.1.15,2013-01-12 17:23:00,
2013-01-12 12:24:00,63.7,56.0,29.96,SSW,199,3.0,10.0,76,0.00,,,0.00,Wunderground v.1.15,2013-01-12 17:24:00,
2013-01-12 12:27:00,63.7,56.4,29.96,SW,227,3.0,10.0,77,0.00,,,0.00,Wunderground v.1.15,2013-01-12 17:27:00,
2013-01-12 12:28:00,63.7,56.0,29.96,SSW,203,3.0,10.0,76,0.00,,,0.00,Wunderground v.1.15,2013-01-12 17:28:00,
2013-01-12 12:30:00,63.7,56.0,29.96,SSW,213,3.0,3.0,76,0.00,,,0.00,Wunderground v.1.15,2013-01-12 17:30:00,
2013-01-12 12:31:00,63.7,56.0,29.96,SSW,213,3.0,3.0,76,0.00,,,0.00,Wunderground v.1.15,2013-01-12 17:31:00,
2013-01-12 12:33:00,63.7,56.0,29.96,SW,216,3.0,5.0,76,0.00,,,0.00,Wunderground v.1.15,2013-01-12 17:33:00,
2013-01-12 12:36:00,63.7,56.0,29.96,SW,224,3.0,5.0,76,0.00,,,0.00,Wunderground v.1.15,2013-01-12 17:36:00,
2013-01-12 12:37:00,63.7,56.0,29.96,SW,219,4.0,5.0,76,0.00,,,0.00,Wunderground v.1.15,2013-01-12 17:37:00,
2013-01-12 12:38:00,63.7,56.4,29.96,SW,219,4.0,5.0,77,0.00,,,0.00,Wunderground v.1.15,2013-01-12 17:38:00,
2013-01-12 12:43:00,63.9,55.8,29.96,South,186,3.0,4.0,75,0.00,,,0.00,Wunderground v.1.15,2013-01-12 17:43:00,
2013-01-12 12:44:00,64.0,55.9,29.96,SSW,206,2.0,4.0,75,0.00,,,0.00,Wunderground v.1.15,2013-01-12 17:44:00,
2013-01-12 12:45:00,64.0,55.9,29.96,SW,227,2.0,4.0,75,0.00,,,0.00,Wunderground v.1.15,2013-01-12 17:45:00,
2013-01-12 12:50:00,64.2,55.7,29.96,SSW,209,3.0,3.0,74,0.00,,,0.00,Wunderground v.1.15,2013-01-12 17:50:00,
2013-01-12 12:52:00,64.4,55.9,29.96,SSW,206,3.0,6.0,74,0.00,,,0.00,Wunderground v.1.15,2013-01-12 17:52:00,
2013-01-12 12:53:00,64.4,55.9,29.96,SSW,205,3.0,6.0,74,0.00,,,0.00,Wunderground v.1.15,2013-01-12 17:53:00,
2013-01-12 12:58:00,64.5,56.0,29.96,SW,215,3.0,10.0,74,0.00,,,0.00,Wunderground v.1.15,2013-01-12 17:58:00,
2013-01-12 12:59:00,64.5,56.4,29.96,SW,217,3.0,10.0,75,0.00,,,0.00,Wunderground v.1.15,2013-01-12 17:59:00,
2013-01-12 13:01:00,64.5,56.4,29.95,SW,220,3.0,3.0,75,0.00,,,0.00,Wunderground v.1.15,2013-01-12 18:01:00,
2013-01-12 13:05:00,64.4,56.3,29.95,SW,222,2.0,3.0,75,0.00,,,0.00,Wunderground v.1.15,2013-01-12 18:05:00,
2013-01-12 13:07:00,64.4,56.7,29.95,SW,222,2.0,3.0,76,0.00,,,0.00,Wunderground v.1.15,2013-01-12 18:07:00,
2013-01-12 13:09:00,64.4,56.7,29.95,SW,222,1.0,3.0,76,0.00,,,0.00,Wunderground v.1.15,2013-01-12 18:09:00,
2013-01-12 13:10:00,64.4,56.7,29.95,SW,222,1.0,1.0,76,0.00,,,0.00,Wunderground v.1.15,2013-01-12 18:10:00,
2013-01-12 13:14:00,64.4,56.3,29.95,WSW,244,0.0,4.0,75,0.00,,,0.00,Wunderground v.1.15,2013-01-12 18:14:00,
2013-01-12 13:16:00,64.4,56.3,29.94,WSW,244,1.0,4.0,75,0.00,,,0.00,Wunderground v.1.15,2013-01-12 18:16:00,
2013-01-12 13:17:00,64.5,56.4,29.94,WSW,244,1.0,4.0,75,0.00,,,0.00,Wunderground v.1.15,2013-01-12 18:17:00,
2013-01-12 13:22:00,64.7,56.2,29.94,WSW,244,1.0,1.0,74,0.00,,,0.00,Wunderground v.1.15,2013-01-12 18:22:00,
2013-01-12 13:23:00,64.7,56.2,29.94,WSW,244,1.0,1.0,74,0.00,,,0.00,Wunderground v.1.15,2013-01-12 18:23:00,
2013-01-12 13:24:00,64.8,56.3,29.94,WSW,244,0.0,1.0,74,0.00,,,0.00,Wunderground v.1.15,2013-01-12 18:24:00,
2013-01-12 13:25:00,64.8,56.3,29.94,WSW,244,0.0,1.0,74,0.00,,,0.00,Wunderground v.1.15,2013-01-12 18:25:00,
2013-01-12 13:29:00,65.0,56.1,29.94,WSW,244,0.0,1.0,73,0.00,,,0.00,Wunderground v.1.15,2013-01-12 18:29:00,
2013-01-12 13:30:00,65.0,56.1,29.94,WSW,244,0.0,0.0,73,0.00,,,0.00,Wunderground v.1.15,2013-01-12 18:30:00,
2013-01-12 13:33:00,65.2,56.3,29.94,WSW,244,0.0,0.0,73,0.00,,,0.00,Wunderground v.1.15,2013-01-12 18:33:00,
2013-01-12 13:34:00,65.2,56.3,29.94,WSW,253,0.0,0.0,73,0.00,,,0.00,Wunderground v.1.15,2013-01-12 18:34:00,
2013-01-12 13:35:00,65.2,56.3,29.94,NW,316,0.0,5.0,73,0.00,,,0.00,Wunderground v.1.15,2013-01-12 18:35:00,
2013-01-12 13:37:00,65.2,56.3,29.94,NW,323,1.0,5.0,73,0.00,,,0.00,Wunderground v.1.15,2013-01-12 18:37:00,
2013-01-12 13:38:00,65.2,56.7,29.94,NW,323,1.0,5.0,74,0.00,,,0.00,Wunderground v.1.15,2013-01-12 18:38:00,
2013-01-12 13:41:00,65.3,56.8,29.94,NW,323,1.0,1.0,74,0.00,,,0.00,Wunderground v.1.15,2013-01-12 18:41:00,
2013-01-12 13:43:00,65.3,56.4,29.94,NNW,333,1.0,5.0,73,0.00,,,0.00,Wunderground v.1.15,2013-01-12 18:43:00,
2013-01-12 13:46:00,65.3,56.4,29.93,NNW,332,2.0,5.0,73,0.00,,,0.00,Wunderground v.1.15,2013-01-12 18:46:00,
2013-01-12 13:47:00,65.3,56.4,29.93,NNW,332,2.0,5.0,73,0.00,,,0.00,Wunderground v.1.15,2013-01-12 18:47:00,
2013-01-12 13:49:00,65.3,56.4,29.93,NNW,332,1.0,5.0,73,0.00,,,0.00,Wunderground v.1.15,2013-01-12 18:49:00,
2013-01-12 13:50:00,65.3,56.0,29.93,NNW,332,1.0,1.0,72,0.00,,,0.00,Wunderground v.1.15,2013-01-12 18:50:00,
2013-01-12 13:52:00,65.2,55.9,29.93,NNW,332,1.0,1.0,72,0.00,,,0.00,Wunderground v.1.15,2013-01-12 18:52:00,
2013-01-12 13:58:00,65.0,55.8,29.93,NW,322,1.0,2.0,72,0.00,,,0.00,Wunderground v.1.15,2013-01-12 18:58:00,
2013-01-12 13:59:00,65.0,55.8,29.93,NW,322,1.0,2.0,72,0.00,,,0.00,Wunderground v.1.15,2013-01-12 18:59:00,
2013-01-12 14:00:00,65.0,55.8,29.93,NW,322,1.0,1.0,72,0.00,,,0.00,Wunderground v.1.15,2013-01-12 19:00:00,
2013-01-12 14:01:00,65.0,55.8,29.93,NW,322,1.0,1.0,72,0.00,,,0.00,Wunderground v.1.15,2013-01-12 19:01:00,
2013-01-12 14:04:00,65.0,55.8,29.93,NW,322,1.0,1.0,72,0.00,,,0.00,Wunderground v.1.15,2013-01-12 19:04:00,
2013-01-12 14:06:00,65.0,56.1,29.93,NW,322,1.0,1.0,73,0.00,,,0.00,Wunderground v.1.15,2013-01-12 19:06:00,
2013-01-12 14:08:00,65.0,56.1,29.93,NW,322,0.0,1.0,73,0.00,,,0.00,Wunderground v.1.15,2013-01-12 19:08:00,
2013-01-12 14:12:00,64.8,56.3,29.93,NW,322,0.0,0.0,74,0.00,,,0.00,Wunderground v.1.15,2013-01-12 19:12:00,
2013-01-12 14:13:00,64.8,56.3,29.93,NW,322,0.0,0.0,74,0.00,,,0.00,Wunderground v.1.15,2013-01-12 19:13:00,
2013-01-12 14:15:00,64.7,56.2,29.92,NW,322,0.0,0.0,74,0.00,,,0.00,Wunderground v.1.15,2013-01-12 19:15:00,
2013-01-12 14:17:00,64.5,56.0,29.92,NW,322,0.0,0.0,74,0.00,,,0.00,Wunderground v.1.15,2013-01-12 19:17:00,
2013-01-12 14:18:00,64.5,56.0,29.92,NW,322,0.0,0.0,74,0.00,,,0.00,Wunderground v.1.15,2013-01-12 19:18:00,
2013-01-12 14:20:00,64.5,56.0,29.92,NW,322,0.0,0.0,74,0.00,,,0.00,Wunderground v.1.15,2013-01-12 19:20:00,
2013-01-12 14:24:00,64.4,55.9,29.92,NW,322,0.0,0.0,74,0.00,,,0.00,Wunderground v.1.15,2013-01-12 19:24:00,
2013-01-12 14:25:00,64.4,55.9,29.92,NW,322,0.0,0.0,74,0.00,,,0.00,Wunderground v.1.15,2013-01-12 19:25:00,
2013-01-12 14:27:00,64.4,55.9,29.92,NW,322,0.0,0.0,74,0.00,,,0.00,Wunderground v.1.15,2013-01-12 19:27:00,
2013-01-12 14:30:00,64.4,56.3,29.91,NW,322,0.0,0.0,75,0.00,,,0.00,Wunderground v.1.15,2013-01-12 19:30:00,
2013-01-12 14:31:00,64.4,56.3,29.91,NW,322,0.0,0.0,75,0.00,,,0.00,Wunderground v.1.15,2013-01-12 19:31:00,
2013-01-12 14:32:00,64.4,56.3,29.91,NW,322,0.0,0.0,75,0.00,,,0.00,Wunderground v.1.15,2013-01-12 19:32:00,
2013-01-12 14:33:00,64.4,56.3,29.91,NW,322,0.0,0.0,75,0.00,,,0.00,Wunderground v.1.15,2013-01-12 19:33:00,
2013-01-12 14:36:00,64.2,56.1,29.91,NNW,347,0.0,0.0,75,0.00,,,0.00,Wunderground v.1.15,2013-01-12 19:36:00,
2013-01-12 14:37:00,64.2,55.7,29.91,NNW,347,0.0,0.0,74,0.00,,,0.00,Wunderground v.1.15,2013-01-12 19:37:00,
2013-01-12 14:38:00,64.2,55.7,29.91,NNW,347,0.0,0.0,74,0.00,,,0.00,Wunderground v.1.15,2013-01-12 19:38:00,
2013-01-12 14:41:00,64.2,56.1,29.91,NNW,347,0.0,0.0,75,0.00,,,0.00,Wunderground v.1.15,2013-01-12 19:41:00,
2013-01-12 14:43:00,64.0,55.9,29.91,North,0,0.0,2.0,75,0.00,,,0.00,Wunderground v.1.15,2013-01-12 19:43:00,
2013-01-12 14:47:00,63.9,55.8,29.91,North,7,0.0,2.0,75,0.00,,,0.00,Wunderground v.1.15,2013-01-12 19:47:00,
2013-01-12 14:49:00,63.9,55.8,29.91,North,7,0.0,2.0,75,0.00,,,0.00,Wunderground v.1.15,2013-01-12 19:49:00,
2013-01-12 14:51:00,63.9,56.2,29.91,North,7,0.0,0.0,76,0.00,,,0.00,Wunderground v.1.15,2013-01-12 19:51:00,
2013-01-12 14:52:00,63.7,56.0,29.91,North,7,0.0,0.0,76,0.00,,,0.00,Wunderground v.1.15,2013-01-12 19:52:00,
2013-01-12 14:54:00,63.7,56.0,29.91,North,7,0.0,0.0,76,0.00,,,0.00,Wunderground v.1.15,2013-01-12 19:54:00,
2013-01-12 14:56:00,63.7,56.0,29.91,North,7,0.0,0.0,76,0.00,,,0.00,Wunderground v.1.15,2013-01-12 19:56:00,
2013-01-12 14:57:00,63.7,56.0,29.91,NNE,16,0.0,0.0,76,0.00,,,0.00,Wunderground v.1.15,2013-01-12 19:57:00,
2013-01-12 14:58:00,63.7,56.0,29.91,NNE,16,0.0,0.0,76,0.00,,,0.00,Wunderground v.1.15,2013-01-12 19:58:00,
2013-01-12 15:01:00,63.7,56.0,29.91,NNE,16,0.0,0.0,76,0.00,,,0.00,Wunderground v.1.15,2013-01-12 20:01:00,
2013-01-12 15:04:00,63.7,56.0,29.91,NNE,16,0.0,0.0,76,0.00,,,0.00,Wunderground v.1.15,2013-01-12 20:04:00,
2013-01-12 15:05:00,63.7,56.0,29.91,NNE,16,0.0,0.0,76,0.00,,,0.00,Wunderground v.1.15,2013-01-12 20:05:00,
2013-01-12 15:09:00,63.7,56.4,29.91,NNE,16,0.0,0.0,77,0.00,,,0.00,Wunderground v.1.15,2013-01-12 20:09:00,
2013-01-12 15:11:00,63.6,56.3,29.91,NNE,16,0.0,0.0,77,0.00,,,0.00,Wunderground v.1.15,2013-01-12 20:11:00,
2013-01-12 15:13:00,63.6,56.3,29.91,NNE,28,0.0,0.0,77,0.00,,,0.00,Wunderground v.1.15,2013-01-12 20:13:00,
2013-01-12 15:14:00,63.6,56.3,29.91,NE,38,0.0,2.0,77,0.00,,,0.00,Wunderground v.1.15,2013-01-12 20:14:00,
2013-01-12 15:16:00,63.6,56.3,29.90,NE,38,0.0,3.0,77,0.00,,,0.00,Wunderground v.1.15,2013-01-12 20:16:00,
2013-01-12 15:21:00,63.6,56.3,29.90,ENE,61,2.0,3.0,77,0.00,,,0.00,Wunderground v.1.15,2013-01-12 20:21:00,
2013-01-12 15:22:00,63.6,56.3,29.90,ENE,66,2.0,3.0,77,0.00,,,0.00,Wunderground v.1.15,2013-01-12 20:22:00,
2013-01-12 15:24:00,63.4,56.1,29.90,East,85,2.0,5.0,77,0.00,,,0.00,Wunderground v.1.15,2013-01-12 20:24:00,
2013-01-12 15:27:00,63.4,56.4,29.90,East,100,3.0,5.0,78,0.00,,,0.00,Wunderground v.1.15,2013-01-12 20:27:00,
2013-01-12 15:28:00,63.4,56.4,29.90,East,100,3.0,5.0,78,0.00,,,0.00,Wunderground v.1.15,2013-01-12 20:28:00,
2013-01-12 15:29:00,63.4,56.4,29.90,East,100,3.0,5.0,78,0.00,,,0.00,Wunderground v.1.15,2013-01-12 20:29:00,
2013-01-12 15:31:00,63.2,56.2,29.90,East,100,4.0,4.0,78,0.00,,,0.00,Wunderground v.1.15,2013-01-12 20:31:00,
2013-01-12 15:34:00,63.2,56.2,29.90,East,100,4.0,4.0,78,0.00,,,0.00,Wunderground v.1.15,2013-01-12 20:34:00,
2013-01-12 15:35:00,63.2,56.2,29.90,East,100,3.0,4.0,78,0.00,,,0.00,Wunderground v.1.15,2013-01-12 20:35:00,
2013-01-12 15:36:00,63.2,56.2,29.90,East,100,3.0,4.0,78,0.00,,,0.00,Wunderground v.1.15,2013-01-12 20:36:00,
2013-01-12 15:37:00,63.2,56.2,29.90,East,100,3.0,4.0,78,0.00,,,0.00,Wunderground v.1.15,2013-01-12 20:37:00,
2013-01-12 15:40:00,63.2,56.6,29.90,ESE,102,3.0,3.0,79,0.00,,,0.00,Wunderground v.1.15,2013-01-12 20:40:00,
2013-01-12 15:43:00,63.1,56.1,29.90,ESE,102,3.0,3.0,78,0.00,,,0.00,Wunderground v.1.15,2013-01-12 20:43:00,
2013-01-12 15:44:00,63.1,56.5,29.90,ESE,102,3.0,3.0,79,0.00,,,0.00,Wunderground v.1.15,2013-01-12 20:44:00,
2013-01-12 15:45:00,63.1,56.5,29.90,ESE,102,3.0,3.0,79,0.00,,,0.00,Wunderground v.1.15,2013-01-12 20:45:00,
2013-01-12 15:48:00,63.1,56.5,29.90,ESE,102,2.0,3.0,79,0.00,,,0.00,Wunderground v.1.15,2013-01-12 20:48:00,
2013-01-12 15:49:00,63.1,56.5,29.90,ESE,102,1.0,3.0,79,0.00,,,0.00,Wunderground v.1.15,2013-01-12 20:49:00,
2013-01-12 15:50:00,62.9,56.3,29.90,ESE,102,1.0,2.0,79,0.00,,,0.00,Wunderground v.1.15,2013-01-12 20:50:00,
2013-01-12 15:53:00,62.9,56.3,29.90,ESE,102,1.0,3.0,79,0.00,,,0.00,Wunderground v.1.15,2013-01-12 20:53:00,
2013-01-12 15:54:00,62.9,56.6,29.90,ESE,102,1.0,3.0,80,0.00,,,0.00,Wunderground v.1.15,2013-01-12 20:54:00,
2013-01-12 15:56:00,62.9,56.6,29.90,ESE,102,1.0,3.0,80,0.00,,,0.00,Wunderground v.1.15,2013-01-12 20:56:00,
2013-01-12 16:00:00,62.8,56.5,29.88,ESE,104,2.0,2.0,80,0.00,,,0.00,Wunderground v.1.15,2013-01-12 21:00:00,
2013-01-12 16:01:00,62.8,56.5,29.88,ESE,104,2.0,3.0,80,0.00,,,0.00,Wunderground v.1.15,2013-01-12 21:01:00,
2013-01-12 16:02:00,62.8,56.5,29.88,ESE,104,2.0,6.0,80,0.00,,,0.00,Wunderground v.1.15,2013-01-12 21:02:00,
2013-01-12 16:03:00,62.8,56.5,29.88,ESE,104,3.0,6.0,80,0.00,,,0.00,Wunderground v.1.15,2013-01-12 21:03:00,
2013-01-12 16:08:00,62.6,56.3,29.88,ESE,102,4.0,6.0,80,0.00,,,0.00,Wunderground v.1.15,2013-01-12 21:08:00,
2013-01-12 16:09:00,62.6,56.7,29.88,ESE,102,4.0,6.0,81,0.00,,,0.00,Wunderground v.1.15,2013-01-12 21:09:00,
2013-01-12 16:11:00,62.6,56.7,29.88,ESE,102,4.0,4.0,81,0.00,,,0.00,Wunderground v.1.15,2013-01-12 21:11:00,
2013-01-12 16:12:00,62.6,56.7,29.88,ESE,102,4.0,4.0,81,0.00,,,0.00,Wunderground v.1.15,2013-01-12 21:12:00,
2013-01-12 16:15:00,62.5,56.6,29.87,East,89,4.0,5.0,81,0.00,,,0.00,Wunderground v.1.15,2013-01-12 21:15:00,
2013-01-12 16:16:00,62.5,56.6,29.87,East,89,4.0,5.0,81,0.00,,,0.00,Wunderground v.1.15,2013-01-12 21:16:00,
2013-01-12 16:17:00,62.5,56.6,29.87,East,90,4.0,5.0,81,0.00,,,0.00,Wunderground v.1.15,2013-01-12 21:17:00,
2013-01-12 16:18:00,62.5,56.6,29.87,East,95,3.0,5.0,81,0.00,,,0.00,Wunderground v.1.15,2013-01-12 21:18:00,
2013-01-12 16:20:00,62.5,56.6,29.87,East,97,3.0,3.0,81,0.00,,,0.00,Wunderground v.1.15,2013-01-12 21:20:00,
2013-01-12 16:21:00,62.3,56.4,29.87,East,99,3.0,3.0,81,0.00,,,0.00,Wunderground v.1.15,2013-01-12 21:21:00,
2013-01-12 16:25:00,62.3,56.7,29.87,East,97,2.0,3.0,82,0.00,,,0.00,Wunderground v.1.15,2013-01-12 21:25:00,
2013-01-12 16:26:00,62.3,56.7,29.87,East,97,1.0,3.0,82,0.00,,,0.00,Wunderground v.1.15,2013-01-12 21:26:00,
2013-01-12 16:28:00,62.1,56.5,29.87,East,97,1.0,3.0,82,0.00,,,0.00,Wunderground v.1.15,2013-01-12 21:28:00,
2013-01-12 16:29:00,62.1,56.5,29.87,East,97,1.0,3.0,82,0.00,,,0.00,Wunderground v.1.15,2013-01-12 21:29:00,
2013-01-12 16:30:00,62.1,56.5,29.86,East,97,1.0,1.0,82,0.00,,,0.00,Wunderground v.1.15,2013-01-12 21:30:00,
2013-01-12 16:33:00,62.1,56.5,29.86,East,97,0.0,1.0,82,0.00,,,0.00,Wunderground v.1.15,2013-01-12 21:33:00,
2013-01-12 16:36:00,62.1,56.5,29.86,East,97,0.0,1.0,82,0.00,,,0.00,Wunderground v.1.15,2013-01-12 21:36:00,
2013-01-12 16:39:00,62.0,56.4,29.86,East,97,0.0,1.0,82,0.00,,,0.00,Wunderground v.1.15,2013-01-12 21:39:00,
2013-01-12 16:40:00,62.0,56.4,29.86,East,97,0.0,0.0,82,0.00,,,0.00,Wunderground v.1.15,2013-01-12 21:40:00,
2013-01-12 16:41:00,62.0,56.4,29.86,East,97,0.0,0.0,82,0.00,,,0.00,Wunderground v.1.15,2013-01-12 21:41:00,
2013-01-12 16:45:00,61.8,56.6,29.87,East,97,0.0,0.0,83,0.00,,,0.00,Wunderground v.1.15,2013-01-12 21:45:00,
2013-01-12 16:47:00,61.8,56.6,29.87,East,97,0.0,0.0,83,0.00,,,0.00,Wunderground v.1.15,2013-01-12 21:47:00,
2013-01-12 16:48:00,61.8,56.6,29.87,East,97,0.0,0.0,83,0.00,,,0.00,Wunderground v.1.15,2013-01-12 21:48:00,
2013-01-12 16:51:00,61.7,56.5,29.87,East,97,0.0,0.0,83,0.00,,,0.00,Wunderground v.1.15,2013-01-12 21:51:00,
2013-01-12 16:52:00,61.7,56.5,29.87,East,97,0.0,0.0,83,0.00,,,0.00,Wunderground v.1.15,2013-01-12 21:52:00,
2013-01-12 16:53:00,61.7,56.5,29.87,East,97,0.0,0.0,83,0.00,,,0.00,Wunderground v.1.15,2013-01-12 21:53:00,
2013-01-12 16:57:00,61.7,56.5,29.87,East,97,0.0,0.0,83,0.00,,,0.00,Wunderground v.1.15,2013-01-12 21:57:00,
2013-01-12 16:58:00,61.7,56.5,29.87,East,97,0.0,0.0,83,0.00,,,0.00,Wunderground v.1.15,2013-01-12 21:58:00,
2013-01-12 16:59:00,61.7,56.5,29.87,East,97,0.0,0.0,83,0.00,,,0.00,Wunderground v.1.15,2013-01-12 21:59:00,
2013-01-12 17:03:00,61.5,56.3,29.87,East,97,0.0,1.0,83,0.00,,,0.00,Wunderground v.1.15,2013-01-12 22:03:00,
2013-01-12 17:04:00,61.5,56.6,29.87,East,97,0.0,1.0,84,0.00,,,0.00,Wunderground v.1.15,2013-01-12 22:04:00,
2013-01-12 17:05:00,61.5,56.6,29.87,East,97,0.0,3.0,84,0.00,,,0.00,Wunderground v.1.15,2013-01-12 22:05:00,
2013-01-12 17:06:00,61.5,56.6,29.87,East,97,0.0,3.0,84,0.00,,,0.00,Wunderground v.1.15,2013-01-12 22:06:00,
2013-01-12 17:09:00,61.4,56.5,29.87,East,97,1.0,3.0,84,0.00,,,0.00,Wunderground v.1.15,2013-01-12 22:09:00,
2013-01-12 17:10:00,61.4,56.5,29.87,East,97,1.0,3.0,84,0.00,,,0.00,Wunderground v.1.15,2013-01-12 22:10:00,
2013-01-12 17:12:00,61.4,56.8,29.87,East,97,2.0,3.0,85,0.00,,,0.00,Wunderground v.1.15,2013-01-12 22:12:00,
2013-01-12 17:14:00,61.2,56.7,29.87,East,97,2.0,3.0,85,0.00,,,0.00,Wunderground v.1.15,2013-01-12 22:14:00,
2013-01-12 17:17:00,61.0,56.8,29.86,East,97,2.0,3.0,86,0.00,,,0.01,Wunderground v.1.15,2013-01-12 22:17:00,
2013-01-12 17:18:00,61.0,56.8,29.86,East,89,2.0,3.0,86,0.00,,,0.01,Wunderground v.1.15,2013-01-12 22:18:00,
2013-01-12 17:21:00,60.9,56.7,29.86,East,88,1.0,2.0,86,0.19,,,0.02,Wunderground v.1.15,2013-01-12 22:21:00,
2013-01-12 17:22:00,60.9,57.0,29.86,East,88,1.0,2.0,87,0.30,,,0.03,Wunderground v.1.15,2013-01-12 22:22:00,
2013-01-12 17:23:00,60.9,57.0,29.86,East,88,1.0,2.0,87,0.30,,,0.03,Wunderground v.1.15,2013-01-12 22:23:00,
2013-01-12 17:24:00,60.9,57.0,29.86,East,88,1.0,2.0,87,0.26,,,0.03,Wunderground v.1.15,2013-01-12 22:24:00,
2013-01-12 17:28:00,60.7,57.1,29.86,East,88,0.0,2.0,88,0.16,,,0.04,Wunderground v.1.15,2013-01-12 22:28:00,
2013-01-12 17:29:00,60.6,57.0,29.86,East,88,0.0,2.0,88,0.16,,,0.04,Wunderground v.1.15,2013-01-12 22:29:00,
2013-01-12 17:30:00,60.6,57.0,29.86,East,88,0.0,0.0,88,0.16,,,0.05,Wunderground v.1.15,2013-01-12 22:30:00,
2013-01-12 17:34:00,60.4,56.8,29.86,East,88,0.0,0.0,88,0.13,,,0.05,Wunderground v.1.15,2013-01-12 22:34:00,
2013-01-12 17:36:00,60.4,56.8,29.86,East,88,0.0,0.0,88,0.12,,,0.06,Wunderground v.1.15,2013-01-12 22:36:00,
2013-01-12 17:38:00,60.3,57.0,29.86,East,88,0.0,0.0,89,0.23,,,0.07,Wunderground v.1.15,2013-01-12 22:38:00,
2013-01-12 17:42:00,60.3,57.0,29.86,East,89,0.0,0.0,89,0.18,,,0.09,Wunderground v.1.15,2013-01-12 22:42:00,
2013-01-12 17:44:00,60.3,57.0,29.86,East,89,0.0,0.0,89,0.30,,,0.10,Wunderground v.1.15,2013-01-12 22:44:00,
2013-01-12 17:46:00,60.3,57.0,29.84,East,88,0.0,0.0,89,0.25,,,0.10,Wunderground v.1.15,2013-01-12 22:46:00,
2013-01-12 17:49:00,60.3,57.4,29.84,East,88,0.0,0.0,90,0.12,,,0.10,Wunderground v.1.15,2013-01-12 22:49:00,
2013-01-12 17:50:00,60.3,57.4,29.84,East,88,0.0,0.0,90,0.12,,,0.11,Wunderground v.1.15,2013-01-12 22:50:00,
2013-01-12 17:51:00,60.3,57.4,29.84,East,88,0.0,0.0,90,0.12,,,0.11,Wunderground v.1.15,2013-01-12 22:51:00,
2013-01-12 17:55:00,60.1,57.2,29.84,East,88,0.0,0.0,90,0.13,,,0.12,Wunderground v.1.15,2013-01-12 22:55:00,
2013-01-12 17:56:00,60.1,57.2,29.84,East,88,0.0,0.0,90,0.13,,,0.12,Wunderground v.1.15,2013-01-12 22:56:00,
2013-01-12 17:58:00,60.1,57.2,29.84,East,88,0.0,0.0,90,0.13,,,0.12,Wunderground v.1.15,2013-01-12 22:58:00,
2013-01-12 18:01:00,60.1,57.2,29.83,East,88,0.0,0.0,90,0.08,,,0.12,Wunderground v.1.15,2013-01-12 23:01:00,
2013-01-12 18:02:00,60.1,57.2,29.83,East,88,0.0,0.0,90,0.07,,,0.12,Wunderground v.1.15,2013-01-12 23:02:00,
2013-01-12 18:06:00,60.1,57.5,29.83,East,88,0.0,0.0,91,0.05,,,0.12,Wunderground v.1.15,2013-01-12 23:06:00,
2013-01-12 18:07:00,60.1,57.5,29.83,East,88,0.0,0.0,91,0.04,,,0.12,Wunderground v.1.15,2013-01-12 23:07:00,
2013-01-12 18:11:00,60.1,57.5,29.83,East,88,0.0,0.0,91,0.04,,,0.13,Wunderground v.1.15,2013-01-12 23:11:00,
2013-01-12 18:12:00,60.1,57.5,29.83,East,88,0.0,0.0,91,0.04,,,0.13,Wunderground v.1.15,2013-01-12 23:12:00,
2013-01-12 18:13:00,60.1,57.5,29.83,East,88,0.0,0.0,91,0.04,,,0.13,Wunderground v.1.15,2013-01-12 23:13:00,
2013-01-12 18:16:00,60.1,57.5,29.81,ENE,68,0.0,0.0,91,0.04,,,0.13,Wunderground v.1.15,2013-01-12 23:16:00,
2013-01-12 18:17:00,60.1,57.5,29.81,ENE,68,0.0,0.0,91,0.95,,,0.15,Wunderground v.1.15,2013-01-12 23:17:00,
2013-01-12 18:18:00,60.1,57.5,29.81,ENE,68,0.0,0.0,91,0.46,,,0.15,Wunderground v.1.15,2013-01-12 23:18:00,
2013-01-12 18:24:00,60.0,57.4,29.81,ENE,68,0.0,0.0,91,0.13,,,0.16,Wunderground v.1.15,2013-01-12 23:24:00,
2013-01-12 18:25:00,60.0,57.4,29.81,ENE,68,0.0,0.0,91,0.12,,,0.17,Wunderground v.1.15,2013-01-12 23:25:00,
2013-01-12 18:27:00,60.0,57.4,29.81,ENE,72,0.0,0.0,91,0.12,,,0.17,Wunderground v.1.15,2013-01-12 23:27:00,
2013-01-12 18:30:00,60.0,57.4,29.81,SSW,198,1.0,1.0,91,0.15,,,0.18,Wunderground v.1.15,2013-01-12 23:30:00,
2013-01-12 18:31:00,60.0,57.4,29.81,SSW,208,1.0,3.0,91,0.15,,,0.18,Wunderground v.1.15,2013-01-12 23:31:00,
2013-01-12 18:32:00,60.0,57.4,29.81,WSW,257,1.0,3.0,91,0.15,,,0.18,Wunderground v.1.15,2013-01-12 23:32:00,
2013-01-12 18:33:00,60.0,57.4,29.81,West,281,2.0,3.0,91,0.16,,,0.19,Wunderground v.1.15,2013-01-12 23:33:00,
2013-01-12 18:36:00,60.0,57.7,29.81,NW,316,2.0,3.0,92,1.47,,,0.23,Wunderground v.1.15,2013-01-12 23:36:00,
2013-01-12 18:39:00,59.8,57.5,29.81,NW,319,4.0,9.0,92,1.67,,,0.30,Wunderground v.1.15,2013-01-12 23:39:00,
2013-01-12 18:40:00,60.0,57.7,29.81,North,356,4.0,4.0,92,1.73,,,0.34,Wunderground v.1.15,2013-01-12 23:40:00,
2013-01-12 18:41:00,60.0,57.7,29.81,North,357,5.0,5.0,92,1.68,,,0.35,Wunderground v.1.15,2013-01-12 23:41:00,
2013-01-12 18:45:00,60.1,57.8,29.82,ENE,76,4.0,5.0,92,7.38,,,0.51,Wunderground v.1.15,2013-01-12 23:45:00,
2013-01-12 18:46:00,60.3,58.3,29.82,ENE,76,4.0,5.0,93,1.43,,,0.54,Wunderground v.1.15,2013-01-12 23:46:00,
2013-01-12 18:48:00,60.3,58.3,29.82,NE,40,2.0,5.0,93,0.72,,,0.57,Wunderground v.1.15,2013-01-12 23:48:00,
2013-01-12 18:49:00,60.3,58.3,29.82,North,0,2.0,5.0,93,0.64,,,0.57,Wunderground v.1.15,2013-01-12 23:49:00,
2013-01-12 18:52:00,60.3,58.3,29.82,North,0,1.0,2.0,93,0.51,,,0.60,Wunderground v.1.15,2013-01-12 23:52:00,
2013-01-12 18:54:00,60.4,58.4,29.82,East,85,1.0,5.0,93,1.96,,,0.65,Wunderground v.1.15,2013-01-12 23:54:00,
2013-01-12 18:55:00,60.6,58.6,29.82,ENE,73,2.0,5.0,93,1.47,,,0.68,Wunderground v.1.15,2013-01-12 23:55:00,
2013-01-12 18:56:00,60.6,58.6,29.82,ENE,62,2.0,5.0,93,0.97,,,0.69,Wunderground v.1.15,2013-01-12 23:56:00,
2013-01-12 18:59:00,60.4,58.4,29.82,ENE,62,2.0,5.0,93,0.24,,,0.71,Wunderground v.1.15,2013-01-12 23:59:00,
2013-01-12 19:00:00,60.4,58.4,29.79,ENE,62,2.0,2.0,93,0.24,,,0.71,Wunderground v.1.15,2013-01-13 00:00:00,
2013-01-12 19:01:00,60.4,58.4,29.79,ENE,62,2.0,2.0,93,0.24,,,0.71,Wunderground v.1.15,2013-01-13 00:01:00,
2013-01-12 19:03:00,60.6,58.6,29.79,ESE,107,2.0,6.0,93,0.22,,,0.72,Wunderground v.1.15,2013-01-13 00:03:00,
2013-01-12 19:05:00,60.6,58.6,29.79,ESE,114,2.0,6.0,93,0.23,,,0.73,Wunderground v.1.15,2013-01-13 00:05:00,
2013-01-12 19:06:00,60.6,58.6,29.79,ESE,114,2.0,6.0,93,0.43,,,0.74,Wunderground v.1.15,2013-01-13 00:06:00,
2013-01-12 19:07:00,60.4,58.4,29.79,ESE,114,2.0,6.0,93,1.03,,,0.75,Wunderground v.1.15,2013-01-13 00:07:00,
2013-01-12 19:09:00,60.7,58.7,29.79,ESE,117,3.0,7.0,93,0.46,,,0.76,Wunderground v.1.15,2013-01-13 00:09:00,
2013-01-12 19:10:00,60.7,58.7,29.79,ESE,119,4.0,4.0,93,0.27,,,0.76,Wunderground v.1.15,2013-01-13 00:10:00,
2013-01-12 19:13:00,60.9,58.9,29.79,ESE,120,4.0,7.0,93,0.15,,,0.77,Wunderground v.1.15,2013-01-13 00:13:00,
2013-01-12 19:14:00,60.9,58.9,29.79,ESE,114,4.0,11.0,93,0.15,,,0.77,Wunderground v.1.15,2013-01-13 00:14:00,
2013-01-12 19:15:00,61.0,59.3,29.78,ESE,110,5.0,12.0,94,0.15,,,0.77,Wunderground v.1.15,2013-01-13 00:15:00,
2013-01-12 19:18:00,61.5,59.8,29.78,SE,144,7.0,13.0,94,0.10,,,0.77,Wunderground v.1.15,2013-01-13 00:18:00,
2013-01-12 19:21:00,61.7,60.0,29.78,ESE,116,7.0,7.0,94,0.20,,,0.79,Wunderground v.1.15,2013-01-13 00:21:00,
2013-01-12 19:22:00,61.7,60.0,29.78,ESE,123,7.0,7.0,94,0.20,,,0.79,Wunderground v.1.15,2013-01-13 00:22:00,
2013-01-12 19:26:00,61.8,60.1,29.78,SE,128,7.0,7.0,94,0.36,,,0.80,Wunderground v.1.15,2013-01-13 00:26:00,
2013-01-12 19:30:00,62.1,60.4,29.79,WSW,243,4.0,4.0,94,0.19,,,0.82,Wunderground v.1.15,2013-01-13 00:30:00,
2013-01-12 19:31:00,62.1,60.4,29.79,West,261,4.0,4.0,94,0.19,,,0.83,Wunderground v.1.15,2013-01-13 00:31:00,
2013-01-12 19:35:00,62.0,60.3,29.79,WSW,258,3.0,4.0,94,0.21,,,0.84,Wunderground v.1.15,2013-01-13 00:35:00,
2013-01-12 19:37:00,62.0,60.3,29.79,West,260,2.0,4.0,94,0.13,,,0.84,Wunderground v.1.15,2013-01-13 00:37:00,
2013-01-12 19:38:00,61.8,60.1,29.79,West,260,2.0,4.0,94,0.11,,,0.84,Wunderground v.1.15,2013-01-13 00:38:00,
2013-01-12 19:41:00,61.7,60.0,29.79,SW,223,1.0,6.0,94,0.10,,,0.85,Wunderground v.1.15,2013-01-13 00:41:00,
2013-01-12 19:43:00,61.7,60.0,29.79,WSW,247,1.0,6.0,94,0.10,,,0.85,Wunderground v.1.15,2013-01-13 00:43:00,
2013-01-12 19:44:00,61.7,60.0,29.79,WSW,247,1.0,6.0,94,0.10,,,0.85,Wunderground v.1.15,2013-01-13 00:44:00,
2013-01-12 19:46:00,61.5,59.8,29.78,WSW,247,1.0,6.0,94,0.08,,,0.85,Wunderground v.1.15,2013-01-13 00:46:00,
2013-01-12 19:49:00,61.5,59.8,29.78,West,268,1.0,6.0,94,0.07,,,0.86,Wunderground v.1.15,2013-01-13 00:49:00,
2013-01-12 19:50:00,61.5,59.8,29.78,West,270,1.0,2.0,94,0.07,,,0.86,Wunderground v.1.15,2013-01-13 00:50:00,
2013-01-12 19:52:00,61.5,59.8,29.78,West,268,1.0,2.0,94,0.07,,,0.86,Wunderground v.1.15,2013-01-13 00:52:00,
2013-01-12 19:53:00,61.8,60.1,29.78,SW,215,1.0,6.0,94,0.07,,,0.86,Wunderground v.1.15,2013-01-13 00:53:00,
2013-01-12 19:56:00,62.3,60.6,29.78,South,176,2.0,6.0,94,0.07,,,0.87,Wunderground v.1.15,2013-01-13 00:56:00,
2013-01-12 19:57:00,62.5,60.7,29.78,SSE,157,3.0,6.0,94,0.07,,,0.87,Wunderground v.1.15,2013-01-13 00:57:00,
2013-01-12 19:58:00,62.8,61.0,29.78,South,169,3.0,6.0,94,0.07,,,0.87,Wunderground v.1.15,2013-01-13 00:58:00,
2013-01-12 20:02:00,63.2,61.4,29.77,SW,222,4.0,10.0,94,0.07,,,0.87,Wunderground v.1.15,2013-01-13 01:02:00,
2013-01-12 20:05:00,63.1,61.3,29.77,SW,220,4.0,10.0,94,0.06,,,0.87,Wunderground v.1.15,2013-01-13 01:05:00,
2013-01-12 20:07:00,62.9,60.8,29.77,SW,220,3.0,10.0,93,0.05,,,0.87,Wunderground v.1.15,2013-01-13 01:07:00,
2013-01-12 20:08:00,62.9,60.8,29.77,SW,220,3.0,10.0,93,0.05,,,0.87,Wunderground v.1.15,2013-01-13 01:08:00,
2013-01-12 20:13:00,62.5,60.4,29.77,SW,223,1.0,2.0,93,0.00,,,0.87,Wunderground v.1.15,2013-01-13 01:13:00,
2013-01-12 20:14:00,62.5,60.7,29.77,SW,223,0.0,2.0,94,0.00,,,0.87,Wunderground v.1.15,2013-01-13 01:14:00,
2013-01-12 20:15:00,62.8,61.0,29.76,SW,216,0.0,3.0,94,0.00,,,0.87,Wunderground v.1.15,2013-01-13 01:15:00,
2013-01-12 20:16:00,62.9,61.1,29.76,South,174,1.0,8.0,94,0.00,,,0.87,Wunderground v.1.15,2013-01-13 01:16:00,
2013-01-12 20:21:00,63.7,61.9,29.76,SE,144,3.0,5.0,94,0.00,,,0.87,Wunderground v.1.15,2013-01-13 01:21:00,
2013-01-12 20:22:00,63.9,62.1,29.76,SSW,212,3.0,17.0,94,0.00,,,0.87,Wunderground v.1.15,2013-01-13 01:22:00,
2013-01-12 20:25:00,64.0,62.2,29.76,SSE,162,5.0,17.0,94,0.00,,,0.87,Wunderground v.1.15,2013-01-13 01:25:00,
2013-01-12 20:26:00,64.0,62.2,29.76,SSW,203,5.0,17.0,94,0.00,,,0.87,Wunderground v.1.15,2013-01-13 01:26:00,
2013-01-12 20:30:00,64.4,62.3,29.76,SSE,165,6.0,6.0,93,0.00,,,0.87,Wunderground v.1.15,2013-01-13 01:30:00,
2013-01-12 20:31:00,64.4,62.3,29.76,SSW,196,7.0,7.0,93,0.00,,,0.87,Wunderground v.1.15,2013-01-13 01:31:00,
2013-01-12 20:32:00,64.4,62.3,29.76,SSW,202,7.0,12.0,93,0.00,,,0.87,Wunderground v.1.15,2013-01-13 01:32:00,
2013-01-12 20:35:00,64.4,62.3,29.76,SSE,162,7.0,16.0,93,0.00,,,0.87,Wunderground v.1.15,2013-01-13 01:35:00,
2013-01-12 20:37:00,64.5,62.4,29.76,SE,137,7.0,16.0,93,0.00,,,0.87,Wunderground v.1.15,2013-01-13 01:37:00,
2013-01-12 20:38:00,64.5,62.4,29.76,SSE,158,7.0,16.0,93,0.00,,,0.87,Wunderground v.1.15,2013-01-13 01:38:00,
2013-01-12 20:39:00,64.5,62.1,29.76,South,191,6.0,16.0,92,0.00,,,0.87,Wunderground v.1.15,2013-01-13 01:39:00,
2013-01-12 20:44:00,64.5,62.1,29.76,ESE,121,5.0,8.0,92,0.00,,,0.87,Wunderground v.1.15,2013-01-13 01:44:00,
2013-01-12 20:45:00,64.7,62.3,29.76,SE,137,5.0,8.0,92,0.00,,,0.87,Wunderground v.1.15,2013-01-13 01:45:00,
2013-01-12 20:46:00,64.7,62.3,29.76,SE,126,5.0,8.0,92,0.00,,,0.87,Wunderground v.1.15,2013-01-13 01:46:00,
2013-01-12 20:47:00,64.7,62.3,29.76,ESE,121,4.0,8.0,92,0.00,,,0.87,Wunderground v.1.15,2013-01-13 01:47:00,
2013-01-12 20:49:00,64.5,62.1,29.76,South,182,4.0,8.0,92,0.00,,,0.87,Wunderground v.1.15,2013-01-13 01:49:00,
2013-01-12 20:51:00,64.7,62.3,29.76,SSW,209,5.0,14.0,92,0.00,,,0.87,Wunderground v.1.15,2013-01-13 01:51:00,
2013-01-12 20:52:00,64.7,62.3,29.76,SW,215,5.0,14.0,92,0.00,,,0.87,Wunderground v.1.15,2013-01-13 01:52:00,
2013-01-12 20:55:00,64.8,62.1,29.76,SSE,152,6.0,14.0,91,0.00,,,0.87,Wunderground v.1.15,2013-01-13 01:55:00,
2013-01-12 20:57:00,64.8,62.1,29.76,SE,131,6.0,14.0,91,0.00,,,0.87,Wunderground v.1.15,2013-01-13 01:57:00,
2013-01-12 20:58:00,64.7,62.0,29.76,SE,141,6.0,14.0,91,0.00,,,0.87,Wunderground v.1.15,2013-01-13 01:58:00,
2013-01-12 21:01:00,64.7,62.0,29.76,SSW,209,5.0,5.0,91,0.00,,,0.87,Wunderground v.1.15,2013-01-13 02:01:00,
2013-01-12 21:02:00,64.7,62.0,29.76,SW,222,4.0,5.0,91,0.00,,,0.87,Wunderground v.1.15,2013-01-13 02:02:00,
2013-01-12 21:03:00,64.7,62.0,29.76,SSW,206,4.0,5.0,91,0.00,,,0.87,Wunderground v.1.15,2013-01-13 02:03:00,
2013-01-12 21:05:00,64.8,62.1,29.76,South,182,4.0,5.0,91,0.00,,,0.87,Wunderground v.1.15,2013-01-13 02:05:00,
2013-01-12 21:06:00,64.8,62.1,29.76,South,169,4.0,5.0,91,0.00,,,0.87,Wunderground v.1.15,2013-01-13 02:06:00,
2013-01-12 21:07:00,65.0,62.3,29.76,SE,128,4.0,5.0,91,0.00,,,0.87,Wunderground v.1.15,2013-01-13 02:07:00,
2013-01-12 21:09:00,65.0,62.0,29.76,SE,128,5.0,5.0,90,0.00,,,0.87,Wunderground v.1.15,2013-01-13 02:09:00,
2013-01-12 21:11:00,65.0,62.0,29.76,SW,216,5.0,17.0,90,0.00,,,0.87,Wunderground v.1.15,2013-01-13 02:11:00,
2013-01-12 21:14:00,65.2,62.2,29.76,South,191,5.0,17.0,90,0.00,,,0.87,Wunderground v.1.15,2013-01-13 02:14:00,
2013-01-12 21:15:00,65.3,62.3,29.76,SSE,157,6.0,17.0,90,0.00,,,0.87,Wunderground v.1.15,2013-01-13 02:15:00,
2013-01-12 21:16:00,65.3,62.0,29.76,South,174,6.0,17.0,89,0.00,,,0.87,Wunderground v.1.15,2013-01-13 02:16:00,
2013-01-12 21:17:00,65.3,62.0,29.76,South,172,6.0,17.0,89,0.00,,,0.87,Wunderground v.1.15,2013-01-13 02:17:00,
2013-01-12 21:21:00,65.3,62.0,29.76,SSE,164,5.0,8.0,89,0.00,,,0.87,Wunderground v.1.15,2013-01-13 02:21:00,
2013-01-12 21:22:00,65.3,62.0,29.76,SSE,164,5.0,8.0,89,0.00,,,0.87,Wunderground v.1.15,2013-01-13 02:22:00,
2013-01-12 21:23:00,65.5,62.2,29.76,SSW,195,5.0,12.0,89,0.00,,,0.87,Wunderground v.1.15,2013-01-13 02:23:00,
2013-01-12 21:25:00,65.5,61.9,29.76,SSE,160,5.0,12.0,88,0.00,,,0.87,Wunderground v.1.15,2013-01-13 02:25:00,
2013-01-12 21:29:00,65.5,61.9,29.76,South,172,6.0,12.0,88,0.00,,,0.87,Wunderground v.1.15,2013-01-13 02:29:00,
2013-01-12 21:30:00,65.5,61.9,29.75,SW,226,6.0,6.0,88,0.00,,,0.87,Wunderground v.1.15,2013-01-13 02:30:00,
2013-01-12 21:31:00,65.5,61.9,29.75,SSW,195,5.0,12.0,88,0.00,,,0.87,Wunderground v.1.15,2013-01-13 02:31:00,
2013-01-12 21:32:00,65.5,61.9,29.75,SSW,210,5.0,12.0,88,0.00,,,0.87,Wunderground v.1.15,2013-01-13 02:32:00,
2013-01-12 21:35:00,65.5,61.9,29.75,SW,216,4.0,12.0,88,0.00,,,0.87,Wunderground v.1.15,2013-01-13 02:35:00,
2013-01-12 21:37:00,65.5,61.9,29.75,South,175,4.0,16.0,88,0.00,,,0.87,Wunderground v.1.15,2013-01-13 02:37:00,
2013-01-12 21:40:00,65.5,61.9,29.75,SSW,213,4.0,4.0,88,0.00,,,0.87,Wunderground v.1.15,2013-01-13 02:40:00,
2013-01-12 21:42:00,65.5,61.9,29.75,SSW,209,4.0,14.0,88,0.00,,,0.87,Wunderground v.1.15,2013-01-13 02:42:00,
2013-01-12 21:44:00,65.5,61.9,29.75,South,179,4.0,14.0,88,0.00,,,0.87,Wunderground v.1.15,2013-01-13 02:44:00,
2013-01-12 21:45:00,65.5,61.9,29.76,South,185,5.0,14.0,88,0.00,,,0.87,Wunderground v.1.15,2013-01-13 02:45:00,
2013-01-12 21:47:00,65.7,62.0,29.76,SSE,150,5.0,14.0,88,0.00,,,0.87,Wunderground v.1.15,2013-01-13 02:47:00,
2013-01-12 21:50:00,65.7,62.0,29.76,South,178,5.0,5.0,88,0.00,,,0.87,Wunderground v.1.15,2013-01-13 02:50:00,
2013-01-12 21:51:00,65.7,62.0,29.76,SE,144,5.0,5.0,88,0.00,,,0.87,Wunderground v.1.15,2013-01-13 02:51:00,
2013-01-12 21:55:00,65.7,62.0,29.76,SSE,157,6.0,8.0,88,0.00,,,0.87,Wunderground v.1.15,2013-01-13 02:55:00,
2013-01-12 21:56:00,65.7,62.0,29.76,South,189,6.0,8.0,88,0.00,,,0.87,Wunderground v.1.15,2013-01-13 02:56:00,
2013-01-12 21:57:00,65.7,62.0,29.76,South,172,5.0,8.0,88,0.00,,,0.87,Wunderground v.1.15,2013-01-13 02:57:00,
2013-01-12 22:00:00,65.8,61.8,29.75,SSE,151,6.0,6.0,87,0.00,,,0.87,Wunderground v.1.15,2013-01-13 03:00:00,
2013-01-12 22:02:00,65.8,61.8,29.75,SSE,152,6.0,7.0,87,0.00,,,0.87,Wunderground v.1.15,2013-01-13 03:02:00,
2013-01-12 22:08:00,65.8,61.8,29.75,South,169,5.0,8.0,87,0.00,,,0.87,Wunderground v.1.15,2013-01-13 03:08:00,
2013-01-12 22:09:00,65.8,61.8,29.75,South,176,5.0,8.0,87,0.00,,,0.87,Wunderground v.1.15,2013-01-13 03:09:00,
2013-01-12 22:11:00,66.0,62.0,29.75,SSE,155,5.0,6.0,87,0.00,,,0.87,Wunderground v.1.15,2013-01-13 03:11:00,
2013-01-12 22:14:00,65.8,61.8,29.75,ESE,102,5.0,7.0,87,0.00,,,0.87,Wunderground v.1.15,2013-01-13 03:14:00,
2013-01-12 22:17:00,65.8,61.8,29.74,SSE,162,5.0,10.0,87,0.00,,,0.87,Wunderground v.1.15,2013-01-13 03:17:00,
2013-01-12 22:19:00,65.8,61.8,29.74,SSE,148,5.0,10.0,87,0.00,,,0.87,Wunderground v.1.15,2013-01-13 03:19:00,
2013-01-12 22:20:00,65.8,61.8,29.74,SSW,199,5.0,7.0,87,0.00,,,0.87,Wunderground v.1.15,2013-01-13 03:20:00,
2013-01-12 22:21:00,65.8,61.8,29.74,South,186,5.0,7.0,87,0.00,,,0.87,Wunderground v.1.15,2013-01-13 03:21:00,
2013-01-12 22:25:00,66.0,62.0,29.74,SSE,150,6.0,7.0,87,0.00,,,0.87,Wunderground v.1.15,2013-01-13 03:25:00,
2013-01-12 22:26:00,66.0,62.0,29.74,South,182,6.0,7.0,87,0.00,,,0.87,Wunderground v.1.15,2013-01-13 03:26:00,
2013-01-12 22:27:00,66.0,61.7,29.74,SE,141,6.0,12.0,86,0.00,,,0.87,Wunderground v.1.15,2013-01-13 03:27:00,
2013-01-12 22:31:00,66.0,61.7,29.73,SSW,208,6.0,6.0,86,0.00,,,0.87,Wunderground v.1.15,2013-01-13 03:31:00,
2013-01-12 22:34:00,66.0,61.7,29.73,SE,136,5.0,6.0,86,0.00,,,0.87,Wunderground v.1.15,2013-01-13 03:34:00,
2013-01-12 22:35:00,66.0,62.0,29.73,SSW,206,5.0,6.0,87,0.00,,,0.87,Wunderground v.1.15,2013-01-13 03:35:00,
2013-01-12 22:37:00,66.0,62.0,29.73,SE,136,5.0,12.0,87,0.00,,,0.87,Wunderground v.1.15,2013-01-13 03:37:00,
2013-01-12 22:40:00,66.0,61.7,29.73,SSE,150,4.0,6.0,86,0.00,,,0.87,Wunderground v.1.15,2013-01-13 03:40:00,
2013-01-12 22:42:00,66.0,61.7,29.73,South,179,5.0,10.0,86,0.00,,,0.87,Wunderground v.1.15,2013-01-13 03:42:00,
2013-01-12 22:43:00,66.0,61.7,29.73,ESE,102,5.0,10.0,86,0.00,,,0.87,Wunderground v.1.15,2013-01-13 03:43:00,
2013-01-12 22:47:00,66.1,61.8,29.72,SE,136,5.0,10.0,86,0.00,,,0.87,Wunderground v.1.15,2013-01-13 03:47:00,
2013-01-12 22:48:00,66.0,61.7,29.72,SSE,152,5.0,10.0,86,0.00,,,0.87,Wunderground v.1.15,2013-01-13 03:48:00,
2013-01-12 22:49:00,66.1,61.8,29.72,SE,136,4.0,10.0,86,0.00,,,0.87,Wunderground v.1.15,2013-01-13 03:49:00,
2013-01-12 22:50:00,66.0,61.7,29.72,SW,233,4.0,4.0,86,0.00,,,0.87,Wunderground v.1.15,2013-01-13 03:50:00,
2013-01-12 22:52:00,66.1,61.8,29.72,SSE,148,3.0,7.0,86,0.00,,,0.87,Wunderground v.1.15,2013-01-13 03:52:00,
2013-01-12 22:54:00,66.1,61.8,29.72,SE,143,3.0,7.0,86,0.00,,,0.87,Wunderground v.1.15,2013-01-13 03:54:00,
2013-01-12 22:55:00,66.1,61.8,29.72,SSE,147,4.0,7.0,86,0.00,,,0.87,Wunderground v.1.15,2013-01-13 03:55:00,
2013-01-12 22:57:00,66.1,61.8,29.72,SE,144,4.0,7.0,86,0.00,,,0.87,Wunderground v.1.15,2013-01-13 03:57:00,
2013-01-12 23:00:00,66.1,61.8,29.72,SSE,167,5.0,5.0,86,0.00,,,0.87,Wunderground v.1.15,2013-01-13 04:00:00,
2013-01-12 23:03:00,66.1,61.5,29.72,SSE,148,5.0,7.0,85,0.00,,,0.87,Wunderground v.1.15,2013-01-13 04:03:00,
2013-01-12 23:04:00,66.1,61.5,29.72,SE,130,5.0,7.0,85,0.00,,,0.87,Wunderground v.1.15,2013-01-13 04:04:00,
2013-01-12 23:06:00,66.3,61.7,29.72,SSW,202,6.0,11.0,85,0.00,,,0.87,Wunderground v.1.15,2013-01-13 04:06:00,
2013-01-12 23:07:00,66.3,61.7,29.72,SSE,147,6.0,11.0,85,0.00,,,0.87,Wunderground v.1.15,2013-01-13 04:07:00,
2013-01-12 23:09:00,66.1,61.5,29.72,South,189,6.0,11.0,85,0.00,,,0.87,Wunderground v.1.15,2013-01-13 04:09:00,
2013-01-12 23:12:00,66.1,61.5,29.72,SSE,148,6.0,6.0,85,0.00,,,0.87,Wunderground v.1.15,2013-01-13 04:12:00,
2013-01-12 23:14:00,66.1,61.5,29.72,SE,141,5.0,6.0,85,0.00,,,0.87,Wunderground v.1.15,2013-01-13 04:14:00,
2013-01-12 23:15:00,66.1,61.5,29.71,South,179,5.0,6.0,85,0.00,,,0.87,Wunderground v.1.15,2013-01-13 04:15:00,
2013-01-12 23:17:00,66.1,61.5,29.71,SSW,206,4.0,7.0,85,0.00,,,0.87,Wunderground v.1.15,2013-01-13 04:17:00,
2013-01-12 23:21:00,66.0,61.7,29.71,SSE,164,3.0,5.0,86,0.00,,,0.87,Wunderground v.1.15,2013-01-13 04:21:00,
2013-01-12 23:23:00,66.0,61.7,29.71,ESE,117,3.0,5.0,86,0.00,,,0.87,Wunderground v.1.15,2013-01-13 04:23:00,
2013-01-12 23:25:00,66.0,61.7,29.71,SE,145,3.0,5.0,86,0.00,,,0.87,Wunderground v.1.15,2013-01-13 04:25:00,
2013-01-12 23:26:00,66.0,61.7,29.71,SE,137,3.0,5.0,86,0.00,,,0.87,Wunderground v.1.15,2013-01-13 04:26:00,
2013-01-12 23:30:00,66.0,61.7,29.70,SE,127,4.0,4.0,86,0.00,,,0.87,Wunderground v.1.15,2013-01-13 04:30:00,
2013-01-12 23:31:00,66.0,61.7,29.70,SSE,150,3.0,4.0,86,0.00,,,0.87,Wunderground v.1.15,2013-01-13 04:31:00,
2013-01-12 23:34:00,66.0,61.7,29.70,SSE,147,4.0,7.0,86,0.00,,,0.87,Wunderground v.1.15,2013-01-13 04:34:00,
2013-01-12 23:35:00,66.0,61.7,29.70,SE,130,4.0,7.0,86,0.00,,,0.87,Wunderground v.1.15,2013-01-13 04:35:00,
2013-01-12 23:37:00,66.0,61.7,29.70,SSE,151,4.0,7.0,86,0.00,,,0.87,Wunderground v.1.15,2013-01-13 04:37:00,
2013-01-12 23:40:00,66.1,61.8,29.70,South,181,5.0,5.0,86,0.00,,,0.87,Wunderground v.1.15,2013-01-13 04:40:00,
2013-01-12 23:41:00,66.1,61.5,29.70,SSE,160,5.0,6.0,85,0.00,,,0.87,Wunderground v.1.15,2013-01-13 04:41:00,
2013-01-12 23:42:00,66.1,61.5,29.70,SE,137,5.0,6.0,85,0.00,,,0.87,Wunderground v.1.15,2013-01-13 04:42:00,
2013-01-12 23:44:00,66.1,61.5,29.70,SE,136,5.0,6.0,85,0.00,,,0.87,Wunderground v.1.15,2013-01-13 04:44:00,
2013-01-12 23:45:00,66.1,61.5,29.68,SE,130,5.0,6.0,85,0.00,,,0.87,Wunderground v.1.15,2013-01-13 04:45:00,
2013-01-12 23:47:00,66.1,61.5,29.68,SSE,152,5.0,6.0,85,0.00,,,0.87,Wunderground v.1.15,2013-01-13 04:47:00,
2013-01-12 23:49:00,66.1,61.8,29.68,SSE,154,6.0,9.0,86,0.00,,,0.87,Wunderground v.1.15,2013-01-13 04:49:00,
2013-01-12 23:51:00,66.0,61.7,29.68,SE,143,6.0,6.0,86,0.00,,,0.87,Wunderground v.1.15,2013-01-13 04:51:00,
2013-01-12 23:52:00,66.0,61.7,29.68,SE,127,6.0,6.0,86,0.00,,,0.87,Wunderground v.1.15,2013-01-13 04:52:00,
2013-01-12 23:55:00,65.8,61.8,29.68,ESE,117,6.0,6.0,87,0.00,,,0.87,Wunderground v.1.15,2013-01-13 04:55:00,
2013-01-12 23:56:00,65.8,61.8,29.68,SE,138,6.0,6.0,87,0.00,,,0.87,Wunderground v.1.15,2013-01-13 04:56:00,